Wetterdaten: aktuell Donnerstag, 01.12.2022 18:20
Datum Zeit Temp. A. Feuchte A. Luftdruck Regen Sonnenschein Regendauer ET UV Solar Taupunkt Windchill Windben Empfang
01.12.2022 18:20 4,4 C 99 % 1024,5 hPa 0,0 l/m 0 min 0 min 0,000 mm 0,0 UV-I 0 W/m 4,3 C 4,4 C 0,0 km/h (0 Bft) 88 %
01.12.2022 18:15 4,4 C 99 % 1024,5 hPa 0,0 l/m 0 min 0 min 0,000 mm 0,0 UV-I 0 W/m 4,3 C 4,4 C 0,0 km/h (0 Bft) 90 %
01.12.2022 18:10 4,4 C 99 % 1024,6 hPa 0,0 l/m 0 min 0 min 0,000 mm 0,0 UV-I 0 W/m 4,3 C 4,4 C 0,0 km/h (0 Bft) 93 %
01.12.2022 18:05 4,4 C 99 % 1024,6 hPa 0,0 l/m 0 min 0 min 0,000 mm 0,0 UV-I 0 W/m 4,3 C 4,4 C 0,0 km/h (0 Bft) 94 %
01.12.2022 18:00 4,4 C 99 % 1024,7 hPa 0,0 l/m 0 min 0 min 0,000 mm 0,0 UV-I 0 W/m 4,3 C 4,4 C 0,0 km/h (0 Bft) 95 %
01.12.2022 17:55 4,4 C 99 % 1024,8 hPa 0,0 l/m 0 min 0 min 0,000 mm 0,0 UV-I 0 W/m 4,3 C 4,4 C 1,6 km/h (1 Bft) 97 %
01.12.2022 17:50 4,4 C 99 % 1024,9 hPa 0,0 l/m 0 min 0 min 0,000 mm 0,0 UV-I 0 W/m 4,3 C 4,4 C 1,6 km/h (1 Bft) 95 %
01.12.2022 17:45 4,3 C 99 % 1024,9 hPa 0,0 l/m 0 min 0 min 0,000 mm 0,0 UV-I 0 W/m 4,2 C 4,3 C 6,4 km/h (2 Bft) 95 %
01.12.2022 17:40 4,3 C 99 % 1024,9 hPa 0,0 l/m 0 min 0 min 0,000 mm 0,0 UV-I 0 W/m 4,2 C 4,3 C 9,7 km/h (2 Bft) 97 %
01.12.2022 17:35 4,3 C 100 % 1024,9 hPa 0,0 l/m 0 min 0 min 0,000 mm 0,0 UV-I 0 W/m 4,3 C 4,3 C 11,3 km/h (2 Bft) 91 %
01.12.2022 17:30 4,3 C 100 % 1024,9 hPa 0,0 l/m 0 min 0 min 0,000 mm 0,0 UV-I 0 W/m 4,3 C 4,3 C 1,6 km/h (1 Bft) 90 %
01.12.2022 17:25 4,3 C 100 % 1024,7 hPa 0,0 l/m 0 min 0 min 0,000 mm 0,0 UV-I 0 W/m 4,3 C 4,3 C 1,6 km/h (1 Bft) 90 %
01.12.2022 17:20 4,3 C 100 % 1024,6 hPa 0,0 l/m 0 min 0 min 0,000 mm 0,0 UV-I 0 W/m 4,3 C 4,3 C 1,6 km/h (1 Bft) 93 %
01.12.2022 17:15 4,3 C 100 % 1024,6 hPa 0,0 l/m 0 min 0 min 0,000 mm 0,0 UV-I 0 W/m 4,3 C 4,3 C 6,4 km/h (2 Bft) 94 %
01.12.2022 17:10 4,3 C 100 % 1024,5 hPa 0,0 l/m 0 min 0 min 0,000 mm 0,0 UV-I 0 W/m 4,3 C 4,3 C 16,1 km/h (3 Bft) 95 %
01.12.2022 17:05 4,4 C 99 % 1024,5 hPa 0,0 l/m 0 min 0 min 0,000 mm 0,0 UV-I 0 W/m 4,3 C 4,4 C 9,7 km/h (2 Bft) 96 %
01.12.2022 17:00 4,4 C 100 % 1024,4 hPa 0,0 l/m 0 min 0 min 0,000 mm 0,0 UV-I 0 W/m 4,4 C 1,6 C 14,5 km/h (3 Bft) 95 %
01.12.2022 16:55 4,4 C 100 % 1024,4 hPa 0,0 l/m 0 min 0 min 0,000 mm 0,0 UV-I 0 W/m 4,4 C 4,4 C 14,5 km/h (3 Bft) 96 %
01.12.2022 16:50 4,4 C 100 % 1024,6 hPa 0,0 l/m 0 min 0 min 0,000 mm 0,0 UV-I 0 W/m 4,4 C 4,4 C 1,6 km/h (1 Bft) 95 %
01.12.2022 16:45 4,4 C 100 % 1024,4 hPa 0,0 l/m 0 min 0 min 0,000 mm 0,0 UV-I 0 W/m 4,4 C 4,4 C 0,0 km/h (0 Bft) 96 %
01.12.2022 16:40 4,4 C 100 % 1024,5 hPa 0,0 l/m 0 min 0 min 0,000 mm 0,0 UV-I 0 W/m 4,4 C 4,4 C 0,0 km/h (0 Bft) 96 %
01.12.2022 16:35 4,4 C 100 % 1024,6 hPa 0,0 l/m 0 min 0 min 0,000 mm 0,0 UV-I 0 W/m 4,4 C 4,4 C 0,0 km/h (0 Bft) 94 %
01.12.2022 16:30 4,4 C 100 % 1024,6 hPa 0,0 l/m 0 min 0 min 0,000 mm 0,0 UV-I 0 W/m 4,4 C 4,4 C 0,0 km/h (0 Bft) 86 %
01.12.2022 16:25 4,4 C 100 % 1024,6 hPa 0,0 l/m 0 min 0 min 0,000 mm 0,0 UV-I 1 W/m 4,4 C 4,4 C 0,0 km/h (0 Bft) 95 %
01.12.2022 16:20 4,5 C 100 % 1024,5 hPa 0,0 l/m 0 min 0 min 0,000 mm 0,0 UV-I 2 W/m 4,5 C 4,5 C 1,6 km/h (1 Bft) 92 %
01.12.2022 16:15 4,5 C 100 % 1024,4 hPa 0,0 l/m 0 min 0 min 0,000 mm 0,0 UV-I 4 W/m 4,5 C 4,5 C 8,0 km/h (2 Bft) 91 %
01.12.2022 16:10 4,5 C 100 % 1024,5 hPa 0,0 l/m 0 min 0 min 0,000 mm 0,0 UV-I 6 W/m 4,5 C 4,5 C 17,7 km/h (3 Bft) 92 %
01.12.2022 16:05 4,6 C 100 % 1024,4 hPa 0,0 l/m 0 min 0 min 0,000 mm 0,0 UV-I 8 W/m 4,6 C 4,6 C 11,3 km/h (2 Bft) 93 %
01.12.2022 16:00 4,6 C 100 % 1024,4 hPa 0,0 l/m 0 min 0 min 0,000 mm 0,0 UV-I 10 W/m 4,6 C 4,6 C 16,1 km/h (3 Bft) 89 %
01.12.2022 15:55 4,6 C 100 % 1024,4 hPa 0,0 l/m 0 min 0 min 0,000 mm 0,0 UV-I 9 W/m 4,6 C 4,6 C 6,4 km/h (2 Bft) 93 %
01.12.2022 15:50 4,6 C 100 % 1024,3 hPa 0,0 l/m 0 min 0 min 0,000 mm 0,0 UV-I 6 W/m 4,6 C 4,6 C 6,4 km/h (2 Bft) 95 %
01.12.2022 15:45 4,6 C 100 % 1024,4 hPa 0,0 l/m 0 min 0 min 0,000 mm 0,0 UV-I 10 W/m 4,6 C 4,6 C 3,2 km/h (1 Bft) 91 %
01.12.2022 15:40 4,6 C 100 % 1024,3 hPa 0,0 l/m 0 min 0 min 0,000 mm 0,0 UV-I 18 W/m 4,6 C 4,6 C 12,9 km/h (3 Bft) 96 %
01.12.2022 15:35 4,7 C 100 % 1024,4 hPa 0,0 l/m 0 min 0 min 0,000 mm 0,0 UV-I 21 W/m 4,7 C 4,7 C 11,3 km/h (2 Bft) 95 %
01.12.2022 15:30 4,7 C 100 % 1024,4 hPa 0,0 l/m 0 min 0 min 0,000 mm 0,0 UV-I 22 W/m 4,7 C 4,7 C 12,9 km/h (3 Bft) 91 %
01.12.2022 15:25 4,7 C 100 % 1024,4 hPa 0,0 l/m 0 min 0 min 0,000 mm 0,0 UV-I 23 W/m 4,7 C 4,7 C 6,4 km/h (2 Bft) 86 %
01.12.2022 15:20 4,7 C 100 % 1024,4 hPa 0,0 l/m 0 min 0 min 0,000 mm 0,0 UV-I 23 W/m 4,7 C 4,7 C 9,7 km/h (2 Bft) 92 %
01.12.2022 15:15 4,8 C 100 % 1024,4 hPa 0,0 l/m 0 min 0 min 0,000 mm 0,0 UV-I 23 W/m 4,8 C 4,8 C 9,7 km/h (2 Bft) 93 %
01.12.2022 15:10 4,8 C 100 % 1024,4 hPa 0,0 l/m 0 min 0 min 0,000 mm 0,0 UV-I 22 W/m 4,8 C 4,8 C 16,1 km/h (3 Bft) 89 %
01.12.2022 15:05 4,9 C 100 % 1024,4 hPa 0,0 l/m 0 min 0 min 0,000 mm 0,5 UV-I 42 W/m 4,9 C 4,9 C 16,1 km/h (3 Bft) 88 %
01.12.2022 15:00 4,9 C 100 % 1024,4 hPa 0,0 l/m 0 min 0 min 0,025 mm 0,0 UV-I 31 W/m 4,9 C 4,9 C 16,1 km/h (3 Bft) 93 %
01.12.2022 14:55 4,9 C 100 % 1024,4 hPa 0,0 l/m 0 min 0 min 0,000 mm 0,0 UV-I 26 W/m 4,9 C 4,9 C 16,1 km/h (3 Bft) 89 %
01.12.2022 14:50 4,9 C 100 % 1024,4 hPa 0,0 l/m 0 min 0 min 0,000 mm 0,0 UV-I 34 W/m 4,9 C 4,9 C 17,7 km/h (3 Bft) 92 %
01.12.2022 14:45 4,9 C 100 % 1024,4 hPa 0,0 l/m 0 min 0 min 0,000 mm 0,6 UV-I 52 W/m 4,9 C 4,9 C 1,6 km/h (1 Bft) 91 %
01.12.2022 14:40 4,9 C 100 % 1024,4 hPa 0,0 l/m 0 min 0 min 0,000 mm 0,5 UV-I 47 W/m 4,9 C 4,9 C 0,0 km/h (0 Bft) 89 %
01.12.2022 14:35 4,9 C 100 % 1024,4 hPa 0,0 l/m 0 min 0 min 0,000 mm 0,0 UV-I 33 W/m 4,9 C 4,9 C 0,0 km/h (0 Bft) 88 %
01.12.2022 14:30 4,9 C 100 % 1024,5 hPa 0,0 l/m 0 min 0 min 0,000 mm 0,0 UV-I 29 W/m 4,9 C 4,9 C 14,5 km/h (3 Bft) 89 %
01.12.2022 14:25 4,9 C 100 % 1024,6 hPa 0,0 l/m 0 min 0 min 0,000 mm 0,0 UV-I 25 W/m 4,9 C 4,9 C 17,7 km/h (3 Bft) 86 %
01.12.2022 14:20 4,9 C 100 % 1024,6 hPa 0,0 l/m 0 min 0 min 0,000 mm 0,0 UV-I 22 W/m 4,9 C 4,9 C 12,9 km/h (3 Bft) 91 %
01.12.2022 14:15 4,9 C 100 % 1024,6 hPa 0,0 l/m 0 min 0 min 0,000 mm 0,0 UV-I 18 W/m 4,9 C 4,9 C 14,5 km/h (3 Bft) 91 %
01.12.2022 14:10 5,0 C 100 % 1024,7 hPa 0,0 l/m 0 min 0 min 0,000 mm 0,0 UV-I 15 W/m 5,0 C 5,0 C 6,4 km/h (2 Bft) 86 %
01.12.2022 14:05 5,0 C 100 % 1024,7 hPa 0,0 l/m 0 min 0 min 0,000 mm 0,0 UV-I 16 W/m 5,0 C 5,0 C 20,9 km/h (4 Bft) 90 %
01.12.2022 14:00 5,0 C 100 % 1024,7 hPa 0,0 l/m 0 min 0 min 0,025 mm 0,0 UV-I 17 W/m 5,0 C 5,0 C 20,9 km/h (4 Bft) 92 %
01.12.2022 13:55 5,1 C 100 % 1024,7 hPa 0,0 l/m 0 min 0 min 0,000 mm 0,0 UV-I 20 W/m 5,1 C 5,1 C 6,4 km/h (2 Bft) 96 %
01.12.2022 13:50 5,0 C 100 % 1024,8 hPa 0,0 l/m 0 min 0 min 0,000 mm 0,0 UV-I 17 W/m 5,0 C 5,0 C 0,0 km/h (0 Bft) 90 %
01.12.2022 13:45 5,1 C 100 % 1024,8 hPa 0,0 l/m 0 min 0 min 0,000 mm 0,0 UV-I 20 W/m 5,1 C 5,1 C 0,0 km/h (0 Bft) 93 %
01.12.2022 13:40 5,1 C 100 % 1024,8 hPa 0,0 l/m 0 min 0 min 0,000 mm 0,0 UV-I 29 W/m 5,1 C 5,1 C 9,7 km/h (2 Bft) 94 %
01.12.2022 13:35 5,1 C 100 % 1024,8 hPa 0,0 l/m 0 min 0 min 0,000 mm 0,0 UV-I 31 W/m 5,1 C 5,1 C 6,4 km/h (2 Bft) 90 %
01.12.2022 13:30 5,0 C 100 % 1024,9 hPa 0,0 l/m 0 min 0 min 0,000 mm 0,0 UV-I 26 W/m 5,0 C 5,0 C 12,9 km/h (3 Bft) 87 %
01.12.2022 13:25 5,0 C 100 % 1024,9 hPa 0,0 l/m 0 min 0 min 0,000 mm 0,0 UV-I 23 W/m 5,0 C 5,0 C 9,7 km/h (2 Bft) 89 %
01.12.2022 13:20 5,0 C 100 % 1024,9 hPa 0,0 l/m 0 min 0 min 0,000 mm 0,0 UV-I 23 W/m 5,0 C 5,0 C 8,0 km/h (2 Bft) 89 %
01.12.2022 13:15 5,0 C 100 % 1024,9 hPa 0,0 l/m 0 min 0 min 0,000 mm 0,0 UV-I 20 W/m 5,0 C 5,0 C 0,0 km/h (0 Bft) 90 %
01.12.2022 13:10 5,0 C 100 % 1025,0 hPa 0,0 l/m 0 min 0 min 0,000 mm 0,0 UV-I 25 W/m 5,0 C 5,0 C 0,0 km/h (0 Bft) 92 %
01.12.2022 13:05 5,0 C 100 % 1025,0 hPa 0,0 l/m 0 min 0 min 0,000 mm 0,0 UV-I 28 W/m 5,0 C 5,0 C 12,9 km/h (3 Bft) 89 %
01.12.2022 13:00 5,0 C 100 % 1025,0 hPa 0,0 l/m 0 min 0 min 0,025 mm 0,0 UV-I 34 W/m 5,0 C 5,0 C 0,0 km/h (0 Bft) 94 %
01.12.2022 12:55 5,0 C 100 % 1025,0 hPa 0,0 l/m 0 min 0 min 0,000 mm 0,0 UV-I 32 W/m 5,0 C 5,0 C 0,0 km/h (0 Bft) 89 %
01.12.2022 12:50 4,9 C 100 % 1025,0 hPa 0,0 l/m 0 min 0 min 0,000 mm 0,0 UV-I 21 W/m 4,9 C 4,9 C 0,0 km/h (0 Bft) 92 %
01.12.2022 12:45 4,9 C 100 % 1025,0 hPa 0,0 l/m 0 min 0 min 0,000 mm 0,0 UV-I 20 W/m 4,9 C 4,9 C 0,0 km/h (0 Bft) 97 %
01.12.2022 12:40 4,9 C 100 % 1025,1 hPa 0,0 l/m 0 min 0 min 0,000 mm 0,0 UV-I 19 W/m 4,9 C 4,9 C 0,0 km/h (0 Bft) 90 %
01.12.2022 12:35 4,9 C 100 % 1025,2 hPa 0,0 l/m 0 min 0 min 0,000 mm 0,0 UV-I 19 W/m 4,9 C 4,9 C 0,0 km/h (0 Bft) 93 %
01.12.2022 12:30 4,9 C 100 % 1025,1 hPa 0,0 l/m 0 min 0 min 0,000 mm 0,0 UV-I 22 W/m 4,9 C 4,9 C 0,0 km/h (0 Bft) 91 %
01.12.2022 12:25 4,9 C 100 % 1025,2 hPa 0,0 l/m 0 min 0 min 0,000 mm 0,0 UV-I 21 W/m 4,9 C 4,9 C 0,0 km/h (0 Bft) 89 %
01.12.2022 12:20 4,9 C 100 % 1025,2 hPa 0,0 l/m 0 min 0 min 0,000 mm 0,0 UV-I 20 W/m 4,9 C 4,9 C 0,0 km/h (0 Bft) 89 %
01.12.2022 12:15 4,9 C 100 % 1025,3 hPa 0,0 l/m 0 min 0 min 0,000 mm 0,0 UV-I 22 W/m 4,9 C 4,9 C 0,0 km/h (0 Bft) 91 %
01.12.2022 12:10 4,9 C 100 % 1025,3 hPa 0,0 l/m 0 min 0 min 0,000 mm 0,0 UV-I 24 W/m 4,9 C 4,9 C 6,4 km/h (2 Bft) 86 %
01.12.2022 12:05 4,9 C 100 % 1025,3 hPa 0,0 l/m 0 min 0 min 0,000 mm 0,0 UV-I 23 W/m 4,9 C 4,9 C 1,6 km/h (1 Bft) 90 %
01.12.2022 12:00 4,9 C 100 % 1025,3 hPa 0,0 l/m 0 min 0 min 0,000 mm 0,0 UV-I 15 W/m 4,9 C 4,9 C 0,0 km/h (0 Bft) 91 %
01.12.2022 11:55 4,9 C 100 % 1025,4 hPa 0,0 l/m 0 min 0 min 0,000 mm 0,0 UV-I 15 W/m 4,9 C 4,9 C 9,7 km/h (2 Bft) 93 %
01.12.2022 11:50 4,9 C 100 % 1025,4 hPa 0,0 l/m 0 min 0 min 0,000 mm 0,0 UV-I 14 W/m 4,9 C 4,9 C 12,9 km/h (3 Bft) 92 %
01.12.2022 11:45 4,9 C 100 % 1025,4 hPa 0,0 l/m 0 min 0 min 0,000 mm 0,0 UV-I 14 W/m 4,9 C 4,9 C 9,7 km/h (2 Bft) 93 %
01.12.2022 11:40 4,9 C 100 % 1025,5 hPa 0,0 l/m 0 min 0 min 0,000 mm 0,0 UV-I 14 W/m 4,9 C 4,9 C 1,6 km/h (1 Bft) 96 %
01.12.2022 11:35 4,9 C 100 % 1025,5 hPa 0,0 l/m 0 min 0 min 0,000 mm 0,0 UV-I 14 W/m 4,9 C 4,9 C 8,0 km/h (2 Bft) 89 %
01.12.2022 11:30 4,9 C 100 % 1025,5 hPa 0,0 l/m 0 min 0 min 0,000 mm 0,0 UV-I 15 W/m 4,9 C 4,9 C 4,8 km/h (1 Bft) 93 %
01.12.2022 11:25 4,9 C 100 % 1025,5 hPa 0,0 l/m 0 min 0 min 0,000 mm 0,0 UV-I 15 W/m 4,9 C 4,9 C 9,7 km/h (2 Bft) 93 %
01.12.2022 11:20 4,9 C 100 % 1025,6 hPa 0,0 l/m 0 min 0 min 0,000 mm 0,0 UV-I 18 W/m 4,9 C 4,9 C 11,3 km/h (2 Bft) 93 %
01.12.2022 11:15 4,9 C 100 % 1025,5 hPa 0,0 l/m 0 min 0 min 0,000 mm 0,0 UV-I 16 W/m 4,9 C 4,9 C 0,0 km/h (0 Bft) 91 %
01.12.2022 11:10 4,9 C 100 % 1025,6 hPa 0,0 l/m 0 min 0 min 0,000 mm 0,0 UV-I 16 W/m 4,9 C 4,9 C 0,0 km/h (0 Bft) 93 %
01.12.2022 11:05 4,9 C 100 % 1025,6 hPa 0,0 l/m 0 min 0 min 0,000 mm 0,0 UV-I 18 W/m 4,9 C 4,9 C 8,0 km/h (2 Bft) 91 %
01.12.2022 11:00 4,9 C 100 % 1025,7 hPa 0,0 l/m 0 min 0 min 0,000 mm 0,0 UV-I 16 W/m 4,9 C 4,9 C 0,0 km/h (0 Bft) 91 %
01.12.2022 10:55 4,9 C 100 % 1025,6 hPa 0,0 l/m 0 min 0 min 0,000 mm 0,0 UV-I 17 W/m 4,9 C 4,9 C 4,8 km/h (1 Bft) 93 %
01.12.2022 10:50 4,9 C 100 % 1025,6 hPa 0,0 l/m 0 min 0 min 0,000 mm 0,0 UV-I 16 W/m 4,9 C 4,9 C 14,5 km/h (3 Bft) 93 %
01.12.2022 10:45 4,9 C 100 % 1025,7 hPa 0,0 l/m 0 min 0 min 0,000 mm 0,0 UV-I 18 W/m 4,9 C 4,9 C 0,0 km/h (0 Bft) 92 %
01.12.2022 10:40 4,9 C 100 % 1025,7 hPa 0,0 l/m 0 min 0 min 0,000 mm 0,0 UV-I 17 W/m 4,9 C 4,9 C 0,0 km/h (0 Bft) 91 %
01.12.2022 10:35 4,9 C 100 % 1025,7 hPa 0,0 l/m 0 min 0 min 0,000 mm 0,0 UV-I 21 W/m 4,9 C 4,9 C 11,3 km/h (2 Bft) 90 %
01.12.2022 10:30 4,9 C 100 % 1025,7 hPa 0,0 l/m 0 min 0 min 0,000 mm 0,0 UV-I 19 W/m 4,9 C 4,9 C 0,0 km/h (0 Bft) 95 %
01.12.2022 10:25 4,9 C 100 % 1025,6 hPa 0,0 l/m 0 min 0 min 0,000 mm 0,0 UV-I 17 W/m 4,9 C 4,9 C 0,0 km/h (0 Bft) 90 %
01.12.2022 10:20 4,9 C 100 % 1025,6 hPa 0,0 l/m 0 min 0 min 0,000 mm 0,0 UV-I 15 W/m 4,9 C 4,9 C 0,0 km/h (0 Bft) 93 %
01.12.2022 10:15 4,9 C 100 % 1025,6 hPa 0,0 l/m 0 min 0 min 0,000 mm 0,0 UV-I 17 W/m 4,9 C 4,9 C 0,0 km/h (0 Bft) 92 %
01.12.2022 10:10 4,9 C 100 % 1025,6 hPa 0,0 l/m 0 min 0 min 0,000 mm 0,0 UV-I 16 W/m 4,9 C 4,9 C 0,0 km/h (0 Bft) 96 %
01.12.2022 10:08 4,9 C 100 % 1025,6 hPa 0,0 l/m 0 min 0 min 0,000 mm 0,0 UV-I 14 W/m 4,9 C 4,9 C 0,0 km/h (0 Bft) 96 %
01.12.2022 10:06 4,9 C 100 % 1025,6 hPa 0,0 l/m 0 min 0 min 0,000 mm 0,0 UV-I 13 W/m 4,9 C 4,9 C 0,0 km/h (0 Bft) 95 %
01.12.2022 10:04 4,9 C 100 % 1025,6 hPa 0,0 l/m 0 min 0 min 0,000 mm 0,0 UV-I 14 W/m 4,9 C 4,9 C 0,0 km/h (0 Bft) 97 %
01.12.2022 10:00 4,9 C 100 % 1025,5 hPa 0,0 l/m 0 min 0 min 0,000 mm 0,0 UV-I 20 W/m 4,9 C 4,9 C 0,0 km/h (0 Bft) 98 %
01.12.2022 09:58 4,9 C 100 % 1025,5 hPa 0,0 l/m 0 min 0 min 0,000 mm 0,0 UV-I 20 W/m 4,9 C 4,9 C 0,0 km/h (0 Bft) 96 %
01.12.2022 09:56 4,9 C 100 % 1025,5 hPa 0,0 l/m 0 min 0 min 0,000 mm 0,0 UV-I 20 W/m 4,9 C 4,9 C 0,0 km/h (0 Bft) 98 %
01.12.2022 09:54 4,9 C 100 % 1025,5 hPa 0,0 l/m 0 min 0 min 0,000 mm 0,0 UV-I 22 W/m 4,9 C 4,9 C 0,0 km/h (0 Bft) 96 %
01.12.2022 09:52 4,9 C 100 % 1025,5 hPa 0,0 l/m 0 min 0 min 0,000 mm 0,0 UV-I 21 W/m 4,9 C 4,9 C 0,0 km/h (0 Bft) 98 %
01.12.2022 09:50 4,9 C 100 % 1025,5 hPa 0,0 l/m 0 min 0 min 0,000 mm 0,0 UV-I 23 W/m 4,9 C 4,9 C 0,0 km/h (0 Bft) 98 %
01.12.2022 09:48 4,9 C 100 % 1025,5 hPa 0,0 l/m 0 min 0 min 0,000 mm 0,0 UV-I 22 W/m 4,9 C 4,9 C 0,0 km/h (0 Bft) 98 %
01.12.2022 09:46 4,9 C 100 % 1025,4 hPa 0,0 l/m 0 min 0 min 0,000 mm 0,0 UV-I 19 W/m 4,9 C 4,9 C 0,0 km/h (0 Bft) 98 %
01.12.2022 09:44 4,9 C 100 % 1025,5 hPa 0,0 l/m 0 min 0 min 0,000 mm 0,0 UV-I 20 W/m 4,9 C 4,9 C 0,0 km/h (0 Bft) 100 %
01.12.2022 09:42 4,9 C 100 % 1025,5 hPa 0,0 l/m 0 min 0 min 0,000 mm 0,0 UV-I 21 W/m 4,9 C 4,9 C 0,0 km/h (0 Bft) 100 %
01.12.2022 09:40 4,9 C 100 % 1025,5 hPa 0,0 l/m 0 min 0 min 0,000 mm 0,0 UV-I 19 W/m 4,9 C 4,9 C 0,0 km/h (0 Bft) 100 %
01.12.2022 09:38 4,9 C 100 % 1025,5 hPa 0,0 l/m 0 min 0 min 0,000 mm 0,0 UV-I 15 W/m 4,9 C 4,9 C 0,0 km/h (0 Bft) 98 %
01.12.2022 09:36 4,9 C 100 % 1025,5 hPa 0,0 l/m 0 min 0 min 0,000 mm 0,0 UV-I 15 W/m 4,9 C 4,9 C 0,0 km/h (0 Bft) 100 %
01.12.2022 09:34 4,9 C 100 % 1025,4 hPa 0,0 l/m 0 min 0 min 0,000 mm 0,0 UV-I 19 W/m 4,9 C 4,9 C 0,0 km/h (0 Bft) 100 %
01.12.2022 09:32 4,9 C 100 % 1025,4 hPa 0,0 l/m 0 min 0 min 0,000 mm 0,0 UV-I 18 W/m 4,9 C 4,9 C 0,0 km/h (0 Bft) 98 %
01.12.2022 09:30 4,9 C 100 % 1025,5 hPa 0,0 l/m 0 min 0 min 0,000 mm 0,0 UV-I 15 W/m 4,9 C 4,9 C 0,0 km/h (0 Bft) 93 %
01.12.2022 09:28 4,9 C 100 % 1025,5 hPa 0,0 l/m 0 min 0 min 0,000 mm 0,0 UV-I 16 W/m 4,9 C 4,9 C 0,0 km/h (0 Bft) 98 %
01.12.2022 09:26 4,9 C 100 % 1025,4 hPa 0,0 l/m 0 min 0 min 0,000 mm 0,0 UV-I 14 W/m 4,9 C 4,9 C 0,0 km/h (0 Bft) 98 %
01.12.2022 09:24 4,9 C 100 % 1025,4 hPa 0,0 l/m 0 min 0 min 0,000 mm 0,0 UV-I 12 W/m 4,9 C 4,9 C 0,0 km/h (0 Bft) 96 %
01.12.2022 09:22 4,9 C 100 % 1025,4 hPa 0,0 l/m 0 min 0 min 0,000 mm 0,0 UV-I 15 W/m 4,9 C 4,9 C 0,0 km/h (0 Bft) 89 %
01.12.2022 09:20 4,9 C 100 % 1025,5 hPa 0,0 l/m 0 min 0 min 0,000 mm 0,0 UV-I 14 W/m 4,9 C 4,9 C 0,0 km/h (0 Bft) 98 %
01.12.2022 09:18 4,9 C 100 % 1025,4 hPa 0,0 l/m 0 min 0 min 0,000 mm 0,0 UV-I 14 W/m 4,9 C 4,9 C 0,0 km/h (0 Bft) 95 %
01.12.2022 09:16 4,9 C 100 % 1025,4 hPa 0,0 l/m 0 min 0 min 0,000 mm 0,0 UV-I 16 W/m 4,9 C 4,9 C 0,0 km/h (0 Bft) 98 %
01.12.2022 09:14 4,9 C 100 % 1025,4 hPa 0,0 l/m 0 min 0 min 0,000 mm 0,0 UV-I 17 W/m 4,9 C 4,9 C 0,0 km/h (0 Bft) 98 %
01.12.2022 09:12 4,9 C 100 % 1025,4 hPa 0,0 l/m 0 min 0 min 0,000 mm 0,0 UV-I 14 W/m 4,9 C 4,9 C 0,0 km/h (0 Bft) 94 %
01.12.2022 09:10 4,9 C 100 % 1025,4 hPa 0,0 l/m 0 min 0 min 0,000 mm 0,0 UV-I 10 W/m 4,9 C 4,9 C 0,0 km/h (0 Bft) 96 %
01.12.2022 09:08 4,9 C 100 % 1025,4 hPa 0,0 l/m 0 min 0 min 0,000 mm 0,0 UV-I 9 W/m 4,9 C 4,9 C 0,0 km/h (0 Bft) 98 %
01.12.2022 09:06 4,9 C 100 % 1025,4 hPa 0,0 l/m 0 min 0 min 0,000 mm 0,0 UV-I 7 W/m 4,9 C 4,9 C 0,0 km/h (0 Bft) 93 %
01.12.2022 09:04 4,9 C 100 % 1025,3 hPa 0,0 l/m 0 min 0 min 0,000 mm 0,0 UV-I 7 W/m 4,9 C 4,9 C 0,0 km/h (0 Bft) 96 %
01.12.2022 09:00 4,9 C 100 % 1025,3 hPa 0,0 l/m 0 min 0 min 0,000 mm 0,0 UV-I 9 W/m 4,9 C 4,9 C 0,0 km/h (0 Bft) 94 %
01.12.2022 08:58 4,9 C 100 % 1025,3 hPa 0,0 l/m 0 min 0 min 0,000 mm 0,0 UV-I 9 W/m 4,9 C 4,9 C 0,0 km/h (0 Bft) 96 %
01.12.2022 08:56 4,9 C 100 % 1025,3 hPa 0,0 l/m 0 min 0 min 0,000 mm 0,0 UV-I 9 W/m 4,9 C 4,9 C 0,0 km/h (0 Bft) 98 %
01.12.2022 08:54 4,9 C 100 % 1025,4 hPa 0,0 l/m 0 min 0 min 0,000 mm 0,0 UV-I 8 W/m 4,9 C 4,9 C 0,0 km/h (0 Bft) 94 %
01.12.2022 08:52 4,9 C 100 % 1025,4 hPa 0,0 l/m 0 min 0 min 0,000 mm 0,0 UV-I 9 W/m 4,9 C 4,9 C 0,0 km/h (0 Bft) 98 %
01.12.2022 08:50 4,9 C 100 % 1025,4 hPa 0,0 l/m 0 min 0 min 0,000 mm 0,0 UV-I 8 W/m 4,9 C 4,9 C 0,0 km/h (0 Bft) 98 %
01.12.2022 08:48 4,9 C 100 % 1025,4 hPa 0,0 l/m 0 min 0 min 0,000 mm 0,0 UV-I 9 W/m 4,9 C 4,9 C 0,0 km/h (0 Bft) 98 %
01.12.2022 08:46 4,9 C 100 % 1025,3 hPa 0,0 l/m 0 min 0 min 0,000 mm 0,0 UV-I 7 W/m 4,9 C 4,9 C 0,0 km/h (0 Bft) 96 %
01.12.2022 08:44 4,9 C 100 % 1025,3 hPa 0,0 l/m 0 min 0 min 0,000 mm 0,0 UV-I 6 W/m 4,9 C 4,9 C 0,0 km/h (0 Bft) 98 %
01.12.2022 08:42 4,9 C 100 % 1025,3 hPa 0,0 l/m 0 min 0 min 0,000 mm 0,0 UV-I 6 W/m 4,9 C 4,9 C 0,0 km/h (0 Bft) 98 %
01.12.2022 08:40 4,9 C 100 % 1025,3 hPa 0,0 l/m 0 min 0 min 0,000 mm 0,0 UV-I 5 W/m 4,9 C 4,9 C 0,0 km/h (0 Bft) 100 %
01.12.2022 08:38 5,0 C 100 % 1025,3 hPa 0,0 l/m 0 min 0 min 0,000 mm 0,0 UV-I 4 W/m 5,0 C 5,0 C 0,0 km/h (0 Bft) 100 %
01.12.2022 08:36 5,0 C 100 % 1025,3 hPa 0,0 l/m 0 min 0 min 0,000 mm 0,0 UV-I 4 W/m 5,0 C 5,0 C 0,0 km/h (0 Bft) 98 %
01.12.2022 08:34 5,0 C 100 % 1025,3 hPa 0,0 l/m 0 min 0 min 0,000 mm 0,0 UV-I 4 W/m 5,0 C 5,0 C 0,0 km/h (0 Bft) 100 %
01.12.2022 08:32 5,0 C 100 % 1025,3 hPa 0,0 l/m 0 min 0 min 0,000 mm 0,0 UV-I 2 W/m 5,0 C 5,0 C 0,0 km/h (0 Bft) 96 %
01.12.2022 08:30 5,0 C 100 % 1025,3 hPa 0,0 l/m 0 min 0 min 0,000 mm 0,0 UV-I 2 W/m 5,0 C 5,0 C 0,0 km/h (0 Bft) 100 %
01.12.2022 08:28 5,0 C 100 % 1025,2 hPa 0,0 l/m 0 min 0 min 0,000 mm 0,0 UV-I 0 W/m 5,0 C 5,0 C 0,0 km/h (0 Bft) 100 %
01.12.2022 08:26 5,0 C 100 % 1025,3 hPa 0,0 l/m 0 min 0 min 0,000 mm 0,0 UV-I 0 W/m 5,0 C 5,0 C 0,0 km/h (0 Bft) 100 %
01.12.2022 08:24 5,0 C 100 % 1025,3 hPa 0,0 l/m 0 min 0 min 0,000 mm 0,0 UV-I 0 W/m 5,0 C 5,0 C 0,0 km/h (0 Bft) 100 %
01.12.2022 08:22 5,0 C 100 % 1025,3 hPa 0,0 l/m 0 min 0 min 0,000 mm 0,0 UV-I 0 W/m 5,0 C 5,0 C 0,0 km/h (0 Bft) 98 %
01.12.2022 08:20 5,0 C 100 % 1025,2 hPa 0,0 l/m 0 min 0 min 0,000 mm 0,0 UV-I 0 W/m 5,0 C 5,0 C 0,0 km/h (0 Bft) 100 %
01.12.2022 08:18 5,0 C 100 % 1025,2 hPa 0,0 l/m 0 min 0 min 0,000 mm 0,0 UV-I 0 W/m 5,0 C 5,0 C 0,0 km/h (0 Bft) 100 %
01.12.2022 08:16 5,0 C 100 % 1025,2 hPa 0,0 l/m 0 min 0 min 0,000 mm 0,0 UV-I 0 W/m 5,0 C 5,0 C 0,0 km/h (0 Bft) 100 %
01.12.2022 08:14 5,0 C 100 % 1025,2 hPa 0,0 l/m 0 min 0 min 0,000 mm 0,0 UV-I 0 W/m 5,0 C 5,0 C 0,0 km/h (0 Bft) 100 %
01.12.2022 08:12 5,0 C 100 % 1025,2 hPa 0,0 l/m 0 min 0 min 0,000 mm 0,0 UV-I 0 W/m 5,0 C 5,0 C 0,0 km/h (0 Bft) 100 %
01.12.2022 08:10 5,0 C 100 % 1025,2 hPa 0,0 l/m 0 min 0 min 0,000 mm 0,0 UV-I 0 W/m 5,0 C 5,0 C 0,0 km/h (0 Bft) 100 %
01.12.2022 08:08 5,0 C 100 % 1025,2 hPa 0,0 l/m 0 min 0 min 0,000 mm 0,0 UV-I 0 W/m 5,0 C 5,0 C 0,0 km/h (0 Bft) 100 %
01.12.2022 08:06 5,0 C 100 % 1025,2 hPa 0,0 l/m 0 min 0 min 0,000 mm 0,0 UV-I 0 W/m 5,0 C 5,0 C 0,0 km/h (0 Bft) 98 %
01.12.2022 08:04 5,0 C 100 % 1025,1 hPa 0,0 l/m 0 min 0 min 0,000 mm 0,0 UV-I 0 W/m 5,0 C 5,0 C 0,0 km/h (0 Bft) 100 %
01.12.2022 08:02 5,1 C 100 % 1025,1 hPa 0,0 l/m 0 min 0 min 0,000 mm 0,0 UV-I 0 W/m 5,1 C 5,1 C 0,0 km/h (0 Bft) 100 %
01.12.2022 08:00 5,1 C 100 % 1025,1 hPa 0,0 l/m 0 min 0 min 0,000 mm 0,0 UV-I 0 W/m 5,1 C 5,1 C 0,0 km/h (0 Bft) 100 %
01.12.2022 07:58 5,1 C 100 % 1025,0 hPa 0,0 l/m 0 min 0 min 0,000 mm 0,0 UV-I 0 W/m 5,1 C 5,1 C 0,0 km/h (0 Bft) 100 %
01.12.2022 07:56 5,1 C 100 % 1025,0 hPa 0,0 l/m 0 min 0 min 0,000 mm 0,0 UV-I 0 W/m 5,1 C 5,1 C 0,0 km/h (0 Bft) 100 %
01.12.2022 07:54 5,1 C 100 % 1025,1 hPa 0,0 l/m 0 min 0 min 0,000 mm 0,0 UV-I 0 W/m 5,1 C 5,1 C 0,0 km/h (0 Bft) 98 %
01.12.2022 07:52 5,1 C 100 % 1025,0 hPa 0,0 l/m 0 min 0 min 0,000 mm 0,0 UV-I 0 W/m 5,1 C 5,1 C 0,0 km/h (0 Bft) 98 %
01.12.2022 07:50 5,1 C 100 % 1025,0 hPa 0,0 l/m 0 min 0 min 0,000 mm 0,0 UV-I 0 W/m 5,1 C 5,1 C 0,0 km/h (0 Bft) 98 %
01.12.2022 07:48 5,1 C 100 % 1025,0 hPa 0,0 l/m 0 min 0 min 0,000 mm 0,0 UV-I 0 W/m 5,1 C 5,1 C 0,0 km/h (0 Bft) 100 %
01.12.2022 07:46 5,1 C 100 % 1024,9 hPa 0,0 l/m 0 min 0 min 0,000 mm 0,0 UV-I 0 W/m 5,1 C 5,1 C 0,0 km/h (0 Bft) 98 %
01.12.2022 07:44 5,1 C 100 % 1024,9 hPa 0,0 l/m 0 min 0 min 0,000 mm 0,0 UV-I 0 W/m 5,1 C 5,1 C 0,0 km/h (0 Bft) 94 %
01.12.2022 07:42 5,1 C 100 % 1024,9 hPa 0,0 l/m 0 min 0 min 0,000 mm 0,0 UV-I 0 W/m 5,1 C 5,1 C 0,0 km/h (0 Bft) 98 %
01.12.2022 07:40 5,1 C 100 % 1024,9 hPa 0,0 l/m 0 min 0 min 0,000 mm 0,0 UV-I 0 W/m 5,1 C 5,1 C 0,0 km/h (0 Bft) 96 %
01.12.2022 07:38 5,1 C 100 % 1024,8 hPa 0,0 l/m 0 min 0 min 0,000 mm 0,0 UV-I 0 W/m 5,1 C 5,1 C 0,0 km/h (0 Bft) 96 %
01.12.2022 07:36 5,1 C 100 % 1024,9 hPa 0,0 l/m 0 min 0 min 0,000 mm 0,0 UV-I 0 W/m 5,1 C 5,1 C 0,0 km/h (0 Bft) 96 %
01.12.2022 07:34 5,1 C 100 % 1024,8 hPa 0,0 l/m 0 min 0 min 0,000 mm 0,0 UV-I 0 W/m 5,1 C 5,1 C 0,0 km/h (0 Bft) 94 %
01.12.2022 07:32 5,1 C 100 % 1024,8 hPa 0,0 l/m 0 min 0 min 0,000 mm 0,0 UV-I 0 W/m 5,1 C 5,1 C 0,0 km/h (0 Bft) 96 %
01.12.2022 07:30 5,1 C 100 % 1024,8 hPa 0,0 l/m 0 min 0 min 0,000 mm 0,0 UV-I 0 W/m 5,1 C 5,1 C 0,0 km/h (0 Bft) 96 %
01.12.2022 07:28 5,1 C 100 % 1024,8 hPa 0,0 l/m 0 min 0 min 0,000 mm 0,0 UV-I 0 W/m 5,1 C 5,1 C 0,0 km/h (0 Bft) 96 %
01.12.2022 07:26 5,1 C 100 % 1024,8 hPa 0,0 l/m 0 min 0 min 0,000 mm 0,0 UV-I 0 W/m 5,1 C 5,1 C 0,0 km/h (0 Bft) 91 %
01.12.2022 07:24 5,1 C 100 % 1024,8 hPa 0,0 l/m 0 min 0 min 0,000 mm 0,0 UV-I 0 W/m 5,1 C 5,1 C 0,0 km/h (0 Bft) 96 %
01.12.2022 07:22 5,1 C 100 % 1024,8 hPa 0,0 l/m 0 min 0 min 0,000 mm 0,0 UV-I 0 W/m 5,1 C 5,1 C 0,0 km/h (0 Bft) 96 %
01.12.2022 07:20 5,1 C 100 % 1024,7 hPa 0,0 l/m 0 min 0 min 0,000 mm 0,0 UV-I 0 W/m 5,1 C 5,1 C 0,0 km/h (0 Bft) 98 %
01.12.2022 07:18 5,1 C 100 % 1024,7 hPa 0,0 l/m 0 min 0 min 0,000 mm 0,0 UV-I 0 W/m 5,1 C 5,1 C 0,0 km/h (0 Bft) 98 %
01.12.2022 07:16 5,1 C 100 % 1024,7 hPa 0,0 l/m 0 min 0 min 0,000 mm 0,0 UV-I 0 W/m 5,1 C 5,1 C 0,0 km/h (0 Bft) 98 %
01.12.2022 07:14 5,1 C 100 % 1024,7 hPa 0,0 l/m 0 min 0 min 0,000 mm 0,0 UV-I 0 W/m 5,1 C 5,1 C 0,0 km/h (0 Bft) 98 %
01.12.2022 07:12 5,1 C 100 % 1024,7 hPa 0,0 l/m 0 min 0 min 0,000 mm 0,0 UV-I 0 W/m 5,1 C 5,1 C 0,0 km/h (0 Bft) 96 %
01.12.2022 07:10 5,1 C 100 % 1024,7 hPa 0,0 l/m 0 min 0 min 0,000 mm 0,0 UV-I 0 W/m 5,1 C 5,1 C 0,0 km/h (0 Bft) 100 %
01.12.2022 07:08 5,1 C 100 % 1024,7 hPa 0,0 l/m 0 min 0 min 0,000 mm 0,0 UV-I 0 W/m 5,1 C 5,1 C 0,0 km/h (0 Bft) 100 %
01.12.2022 07:06 5,1 C 100 % 1024,7 hPa 0,0 l/m 0 min 0 min 0,000 mm 0,0 UV-I 0 W/m 5,1 C 5,1 C 0,0 km/h (0 Bft) 100 %
01.12.2022 07:04 5,1 C 99 % 1024,7 hPa 0,0 l/m 0 min 0 min 0,000 mm 0,0 UV-I 0 W/m 5,0 C 5,1 C 0,0 km/h (0 Bft) 100 %
01.12.2022 07:02 5,1 C 99 % 1024,7 hPa 0,0 l/m 0 min 0 min 0,000 mm 0,0 UV-I 0 W/m 5,0 C 5,1 C 0,0 km/h (0 Bft) 100 %
01.12.2022 07:00 5,1 C 99 % 1024,6 hPa 0,0 l/m 0 min 0 min 0,000 mm 0,0 UV-I 0 W/m 5,0 C 5,1 C 0,0 km/h (0 Bft) 98 %
01.12.2022 06:58 5,1 C 99 % 1024,6 hPa 0,0 l/m 0 min 0 min 0,000 mm 0,0 UV-I 0 W/m 5,0 C 5,1 C 0,0 km/h (0 Bft) 100 %
01.12.2022 06:56 5,1 C 99 % 1024,6 hPa 0,0 l/m 0 min 0 min 0,000 mm 0,0 UV-I 0 W/m 5,0 C 5,1 C 0,0 km/h (0 Bft) 100 %
01.12.2022 06:54 5,1 C 99 % 1024,6 hPa 0,0 l/m 0 min 0 min 0,000 mm 0,0 UV-I 0 W/m 5,0 C 5,1 C 0,0 km/h (0 Bft) 98 %
01.12.2022 06:52 5,1 C 99 % 1024,5 hPa 0,0 l/m 0 min 0 min 0,000 mm 0,0 UV-I 0 W/m 5,0 C 5,1 C 0,0 km/h (0 Bft) 100 %
01.12.2022 06:50 5,1 C 99 % 1024,6 hPa 0,0 l/m 0 min 0 min 0,000 mm 0,0 UV-I 0 W/m 5,0 C 5,1 C 0,0 km/h (0 Bft) 100 %
01.12.2022 06:48 5,1 C 99 % 1024,6 hPa 0,0 l/m 0 min 0 min 0,000 mm 0,0 UV-I 0 W/m 5,0 C 5,1 C 8,0 km/h (2 Bft) 100 %
01.12.2022 06:46 5,1 C 99 % 1024,5 hPa 0,0 l/m 0 min 0 min 0,000 mm 0,0 UV-I 0 W/m 5,0 C 5,1 C 1,6 km/h (1 Bft) 98 %
01.12.2022 06:44 5,1 C 99 % 1024,6 hPa 0,0 l/m 0 min 0 min 0,000 mm 0,0 UV-I 0 W/m 5,0 C 5,1 C 0,0 km/h (0 Bft) 98 %
01.12.2022 06:42 5,1 C 99 % 1024,6 hPa 0,0 l/m 0 min 0 min 0,000 mm 0,0 UV-I 0 W/m 5,0 C 5,1 C 0,0 km/h (0 Bft) 100 %
01.12.2022 06:40 5,1 C 99 % 1024,5 hPa 0,0 l/m 0 min 0 min 0,000 mm 0,0 UV-I 0 W/m 5,0 C 5,1 C 0,0 km/h (0 Bft) 98 %
01.12.2022 06:38 5,1 C 99 % 1024,5 hPa 0,0 l/m 0 min 0 min 0,000 mm 0,0 UV-I 0 W/m 5,0 C 5,1 C 0,0 km/h (0 Bft) 98 %
01.12.2022 06:36 5,1 C 99 % 1024,5 hPa 0,0 l/m 0 min 0 min 0,000 mm 0,0 UV-I 0 W/m 5,0 C 5,1 C 0,0 km/h (0 Bft) 98 %
01.12.2022 06:34 5,1 C 99 % 1024,5 hPa 0,0 l/m 0 min 0 min 0,000 mm 0,0 UV-I 0 W/m 5,0 C 5,1 C 0,0 km/h (0 Bft) 96 %
01.12.2022 06:32 5,1 C 99 % 1024,5 hPa 0,0 l/m 0 min 0 min 0,000 mm 0,0 UV-I 0 W/m 5,0 C 5,1 C 0,0 km/h (0 Bft) 98 %
01.12.2022 06:30 5,1 C 99 % 1024,6 hPa 0,0 l/m 0 min 0 min 0,000 mm 0,0 UV-I 0 W/m 5,0 C 5,1 C 0,0 km/h (0 Bft) 98 %
01.12.2022 06:28 5,1 C 99 % 1024,6 hPa 0,0 l/m 0 min 0 min 0,000 mm 0,0 UV-I 0 W/m 5,0 C 5,1 C 0,0 km/h (0 Bft) 96 %
01.12.2022 06:26 5,1 C 99 % 1024,6 hPa 0,0 l/m 0 min 0 min 0,000 mm 0,0 UV-I 0 W/m 5,0 C 5,1 C 0,0 km/h (0 Bft) 94 %
01.12.2022 06:24 5,1 C 99 % 1024,5 hPa 0,0 l/m 0 min 0 min 0,000 mm 0,0 UV-I 0 W/m 5,0 C 5,1 C 0,0 km/h (0 Bft) 94 %
01.12.2022 06:20 5,1 C 99 % 1024,5 hPa 0,0 l/m 0 min 0 min 0,000 mm 0,0 UV-I 0 W/m 5,0 C 5,1 C 0,0 km/h (0 Bft) 98 %
01.12.2022 06:18 5,1 C 99 % 1024,5 hPa 0,0 l/m 0 min 0 min 0,000 mm 0,0 UV-I 0 W/m 5,0 C 5,1 C 1,6 km/h (1 Bft) 96 %
01.12.2022 06:16 5,1 C 99 % 1024,6 hPa 0,0 l/m 0 min 0 min 0,000 mm 0,0 UV-I 0 W/m 5,0 C 5,1 C 6,4 km/h (2 Bft) 96 %
01.12.2022 06:14 5,1 C 99 % 1024,5 hPa 0,0 l/m 0 min 0 min 0,000 mm 0,0 UV-I 0 W/m 5,0 C 5,1 C 0,0 km/h (0 Bft) 96 %
01.12.2022 06:12 5,1 C 99 % 1024,5 hPa 0,0 l/m 0 min 0 min 0,000 mm 0,0 UV-I 0 W/m 5,0 C 5,1 C 0,0 km/h (0 Bft) 91 %
01.12.2022 06:10 5,1 C 99 % 1024,5 hPa 0,0 l/m 0 min 0 min 0,000 mm 0,0 UV-I 0 W/m 5,0 C 5,1 C 0,0 km/h (0 Bft) 91 %
01.12.2022 06:08 5,1 C 99 % 1024,4 hPa 0,0 l/m 0 min 2 min 0,000 mm 0,0 UV-I 0 W/m 5,0 C 5,1 C 0,0 km/h (0 Bft) 96 %
01.12.2022 06:06 5,1 C 99 % 1024,4 hPa 0,0 l/m 0 min 2 min 0,000 mm 0,0 UV-I 0 W/m 5,0 C 5,1 C 1,6 km/h (1 Bft) 89 %
01.12.2022 06:04 5,1 C 99 % 1024,5 hPa 0,0 l/m 0 min 2 min 0,000 mm 0,0 UV-I 0 W/m 5,0 C 5,1 C 0,0 km/h (0 Bft) 93 %
01.12.2022 06:02 5,1 C 99 % 1024,5 hPa 0,0 l/m 0 min 0 min 0,000 mm 0,0 UV-I 0 W/m 5,0 C 5,1 C 0,0 km/h (0 Bft) 96 %
01.12.2022 06:00 5,1 C 99 % 1024,5 hPa 0,0 l/m 0 min 0 min 0,000 mm 0,0 UV-I 0 W/m 5,0 C 5,1 C 0,0 km/h (0 Bft) 98 %
01.12.2022 05:58 5,1 C 99 % 1024,6 hPa 0,0 l/m 0 min 0 min 0,000 mm 0,0 UV-I 0 W/m 5,0 C 5,1 C 0,0 km/h (0 Bft) 96 %
01.12.2022 05:56 5,1 C 99 % 1024,6 hPa 0,0 l/m 0 min 0 min 0,000 mm 0,0 UV-I 0 W/m 5,0 C 5,1 C 0,0 km/h (0 Bft) 94 %
01.12.2022 05:54 5,1 C 99 % 1024,6 hPa 0,0 l/m 0 min 0 min 0,000 mm 0,0 UV-I 0 W/m 5,0 C 5,1 C 0,0 km/h (0 Bft) 96 %
01.12.2022 05:52 5,1 C 99 % 1024,5 hPa 0,0 l/m 0 min 0 min 0,000 mm 0,0 UV-I 0 W/m 5,0 C 5,1 C 0,0 km/h (0 Bft) 94 %
01.12.2022 05:50 5,1 C 99 % 1024,5 hPa 0,0 l/m 0 min 0 min 0,000 mm 0,0 UV-I 0 W/m 5,0 C 5,1 C 0,0 km/h (0 Bft) 96 %
01.12.2022 05:48 5,1 C 99 % 1024,5 hPa 0,0 l/m 0 min 0 min 0,000 mm 0,0 UV-I 0 W/m 5,0 C 5,1 C 0,0 km/h (0 Bft) 93 %
01.12.2022 05:46 5,1 C 99 % 1024,5 hPa 0,0 l/m 0 min 0 min 0,000 mm 0,0 UV-I 0 W/m 5,0 C 5,1 C 0,0 km/h (0 Bft) 96 %
01.12.2022 05:44 5,1 C 99 % 1024,6 hPa 0,0 l/m 0 min 0 min 0,000 mm 0,0 UV-I 0 W/m 5,0 C 5,1 C 0,0 km/h (0 Bft) 94 %
01.12.2022 05:42 5,2 C 99 % 1024,5 hPa 0,0 l/m 0 min 0 min 0,000 mm 0,0 UV-I 0 W/m 5,1 C 5,2 C 0,0 km/h (0 Bft) 96 %
01.12.2022 05:40 5,1 C 99 % 1024,6 hPa 0,0 l/m 0 min 2 min 0,000 mm 0,0 UV-I 0 W/m 5,0 C 5,1 C 0,0 km/h (0 Bft) 94 %
01.12.2022 05:38 5,1 C 99 % 1024,6 hPa 0,0 l/m 0 min 0 min 0,000 mm 0,0 UV-I 0 W/m 5,0 C 5,1 C 1,6 km/h (1 Bft) 96 %
01.12.2022 05:36 5,1 C 99 % 1024,6 hPa 0,0 l/m 0 min 0 min 0,000 mm 0,0 UV-I 0 W/m 5,0 C 5,1 C 0,0 km/h (0 Bft) 96 %
01.12.2022 05:34 5,1 C 99 % 1024,6 hPa 0,0 l/m 0 min 0 min 0,000 mm 0,0 UV-I 0 W/m 5,0 C 5,1 C 0,0 km/h (0 Bft) 93 %
01.12.2022 05:32 5,1 C 99 % 1024,6 hPa 0,0 l/m 0 min 0 min 0,000 mm 0,0 UV-I 0 W/m 5,0 C 5,1 C 0,0 km/h (0 Bft) 96 %
01.12.2022 05:30 5,1 C 99 % 1024,6 hPa 0,0 l/m 0 min 0 min 0,000 mm 0,0 UV-I 0 W/m 5,0 C 5,1 C 0,0 km/h (0 Bft) 94 %
01.12.2022 05:28 5,1 C 99 % 1024,6 hPa 0,0 l/m 0 min 0 min 0,000 mm 0,0 UV-I 0 W/m 5,0 C 5,1 C 0,0 km/h (0 Bft) 94 %
01.12.2022 05:26 5,1 C 99 % 1024,6 hPa 0,0 l/m 0 min 0 min 0,000 mm 0,0 UV-I 0 W/m 5,0 C 5,1 C 0,0 km/h (0 Bft) 96 %
01.12.2022 05:24 5,1 C 99 % 1024,6 hPa 0,0 l/m 0 min 0 min 0,000 mm 0,0 UV-I 0 W/m 5,0 C 5,1 C 6,4 km/h (2 Bft) 100 %
01.12.2022 05:22 5,1 C 99 % 1024,6 hPa 0,0 l/m 0 min 0 min 0,000 mm 0,0 UV-I 0 W/m 5,0 C 5,1 C 9,7 km/h (2 Bft) 98 %
01.12.2022 05:20 5,1 C 99 % 1024,6 hPa 0,0 l/m 0 min 0 min 0,000 mm 0,0 UV-I 0 W/m 5,0 C 5,1 C 0,0 km/h (0 Bft) 100 %
01.12.2022 05:18 5,1 C 99 % 1024,6 hPa 0,0 l/m 0 min 0 min 0,000 mm 0,0 UV-I 0 W/m 5,0 C 5,1 C 0,0 km/h (0 Bft) 98 %
01.12.2022 05:16 5,1 C 99 % 1024,6 hPa 0,0 l/m 0 min 0 min 0,000 mm 0,0 UV-I 0 W/m 5,0 C 5,1 C 8,0 km/h (2 Bft) 100 %
01.12.2022 05:14 5,1 C 99 % 1024,6 hPa 0,0 l/m 0 min 0 min 0,000 mm 0,0 UV-I 0 W/m 5,0 C 5,1 C 0,0 km/h (0 Bft) 98 %
01.12.2022 05:12 5,2 C 99 % 1024,6 hPa 0,0 l/m 0 min 0 min 0,000 mm 0,0 UV-I 0 W/m 5,1 C 5,2 C 0,0 km/h (0 Bft) 98 %
01.12.2022 05:10 5,2 C 99 % 1024,6 hPa 0,0 l/m 0 min 0 min 0,000 mm 0,0 UV-I 0 W/m 5,1 C 5,2 C 0,0 km/h (0 Bft) 100 %
01.12.2022 05:08 5,2 C 99 % 1024,6 hPa 0,0 l/m 0 min 0 min 0,000 mm 0,0 UV-I 0 W/m 5,1 C 5,2 C 0,0 km/h (0 Bft) 96 %
01.12.2022 05:06 5,2 C 99 % 1024,6 hPa 0,0 l/m 0 min 0 min 0,000 mm 0,0 UV-I 0 W/m 5,1 C 5,2 C 0,0 km/h (0 Bft) 98 %
01.12.2022 05:04 5,1 C 99 % 1024,6 hPa 0,0 l/m 0 min 0 min 0,000 mm 0,0 UV-I 0 W/m 5,0 C 5,1 C 0,0 km/h (0 Bft) 100 %
01.12.2022 05:02 5,2 C 99 % 1024,6 hPa 0,0 l/m 0 min 0 min 0,000 mm 0,0 UV-I 0 W/m 5,1 C 5,2 C 0,0 km/h (0 Bft) 97 %
01.12.2022 05:00 5,1 C 99 % 1024,6 hPa 0,0 l/m 0 min 2 min 0,000 mm 0,0 UV-I 0 W/m 5,0 C 5,1 C 0,0 km/h (0 Bft) 98 %
01.12.2022 04:58 5,2 C 99 % 1024,6 hPa 0,0 l/m 0 min 0 min 0,000 mm 0,0 UV-I 0 W/m 5,1 C 5,2 C 0,0 km/h (0 Bft) 98 %
01.12.2022 04:56 5,2 C 99 % 1024,6 hPa 0,2 l/m 0 min 2 min 0,000 mm 0,0 UV-I 0 W/m 5,1 C 5,2 C 0,0 km/h (0 Bft) 98 %
01.12.2022 04:54 5,2 C 99 % 1024,6 hPa 0,0 l/m 0 min 0 min 0,000 mm 0,0 UV-I 0 W/m 5,1 C 5,2 C 0,0 km/h (0 Bft) 96 %
01.12.2022 04:52 5,2 C 99 % 1024,6 hPa 0,0 l/m 0 min 2 min 0,000 mm 0,0 UV-I 0 W/m 5,1 C 5,2 C 1,6 km/h (1 Bft) 98 %
01.12.2022 04:50 5,2 C 99 % 1024,6 hPa 0,0 l/m 0 min 2 min 0,000 mm 0,0 UV-I 0 W/m 5,1 C 5,2 C 0,0 km/h (0 Bft) 98 %
01.12.2022 04:48 5,2 C 99 % 1024,5 hPa 0,0 l/m 0 min 2 min 0,000 mm 0,0 UV-I 0 W/m 5,1 C 5,2 C 0,0 km/h (0 Bft) 96 %
01.12.2022 04:46 5,2 C 99 % 1024,5 hPa 0,0 l/m 0 min 2 min 0,000 mm 0,0 UV-I 0 W/m 5,1 C 5,2 C 0,0 km/h (0 Bft) 96 %
01.12.2022 04:44 5,2 C 99 % 1024,6 hPa 0,0 l/m 0 min 0 min 0,000 mm 0,0 UV-I 0 W/m 5,1 C 5,2 C 0,0 km/h (0 Bft) 98 %
01.12.2022 04:42 5,2 C 99 % 1024,6 hPa 0,0 l/m 0 min 2 min 0,000 mm 0,0 UV-I 0 W/m 5,1 C 5,2 C 0,0 km/h (0 Bft) 98 %
01.12.2022 04:40 5,2 C 99 % 1024,6 hPa 0,0 l/m 0 min 2 min 0,000 mm 0,0 UV-I 0 W/m 5,1 C 5,2 C 0,0 km/h (0 Bft) 100 %
01.12.2022 04:38 5,2 C 99 % 1024,6 hPa 0,0 l/m 0 min 2 min 0,000 mm 0,0 UV-I 0 W/m 5,1 C 5,2 C 0,0 km/h (0 Bft) 96 %
01.12.2022 04:36 5,2 C 99 % 1024,5 hPa 0,0 l/m 0 min 2 min 0,000 mm 0,0 UV-I 0 W/m 5,1 C 5,2 C 0,0 km/h (0 Bft) 100 %
01.12.2022 04:34 5,2 C 99 % 1024,6 hPa 0,0 l/m 0 min 0 min 0,000 mm 0,0 UV-I 0 W/m 5,1 C 5,2 C 0,0 km/h (0 Bft) 100 %
01.12.2022 04:32 5,2 C 99 % 1024,5 hPa 0,0 l/m 0 min 0 min 0,000 mm 0,0 UV-I 0 W/m 5,1 C 5,2 C 0,0 km/h (0 Bft) 98 %
01.12.2022 04:30 5,2 C 99 % 1024,6 hPa 0,0 l/m 0 min 0 min 0,000 mm 0,0 UV-I 0 W/m 5,1 C 5,2 C 0,0 km/h (0 Bft) 100 %
01.12.2022 04:28 5,2 C 99 % 1024,5 hPa 0,0 l/m 0 min 0 min 0,000 mm 0,0 UV-I 0 W/m 5,1 C 5,2 C 0,0 km/h (0 Bft) 96 %
01.12.2022 04:26 5,2 C 99 % 1024,5 hPa 0,0 l/m 0 min 0 min 0,000 mm 0,0 UV-I 0 W/m 5,1 C 5,2 C 0,0 km/h (0 Bft) 98 %
01.12.2022 04:24 5,2 C 99 % 1024,4 hPa 0,0 l/m 0 min 0 min 0,000 mm 0,0 UV-I 0 W/m 5,1 C 5,2 C 0,0 km/h (0 Bft) 100 %
01.12.2022 04:22 5,2 C 99 % 1024,5 hPa 0,0 l/m 0 min 0 min 0,000 mm 0,0 UV-I 0 W/m 5,1 C 5,2 C 0,0 km/h (0 Bft) 100 %
01.12.2022 04:20 5,2 C 99 % 1024,5 hPa 0,0 l/m 0 min 0 min 0,000 mm 0,0 UV-I 0 W/m 5,1 C 5,2 C 0,0 km/h (0 Bft) 100 %
01.12.2022 04:18 5,2 C 99 % 1024,5 hPa 0,0 l/m 0 min 0 min 0,000 mm 0,0 UV-I 0 W/m 5,1 C 5,2 C 0,0 km/h (0 Bft) 98 %
01.12.2022 04:16 5,2 C 99 % 1024,5 hPa 0,0 l/m 0 min 0 min 0,000 mm 0,0 UV-I 0 W/m 5,1 C 5,2 C 0,0 km/h (0 Bft) 100 %
01.12.2022 04:14 5,2 C 99 % 1024,6 hPa 0,0 l/m 0 min 0 min 0,000 mm 0,0 UV-I 0 W/m 5,1 C 5,2 C 0,0 km/h (0 Bft) 100 %
01.12.2022 04:12 5,2 C 99 % 1024,6 hPa 0,0 l/m 0 min 0 min 0,000 mm 0,0 UV-I 0 W/m 5,1 C 5,2 C 0,0 km/h (0 Bft) 100 %
01.12.2022 04:10 5,2 C 99 % 1024,5 hPa 0,0 l/m 0 min 0 min 0,000 mm 0,0 UV-I 0 W/m 5,1 C 5,2 C 0,0 km/h (0 Bft) 98 %
01.12.2022 04:08 5,2 C 99 % 1024,6 hPa 0,0 l/m 0 min 0 min 0,000 mm 0,0 UV-I 0 W/m 5,1 C 5,2 C 0,0 km/h (0 Bft) 96 %
01.12.2022 04:06 5,2 C 99 % 1024,5 hPa 0,0 l/m 0 min 0 min 0,000 mm 0,0 UV-I 0 W/m 5,1 C 5,2 C 0,0 km/h (0 Bft) 96 %
01.12.2022 04:04 5,2 C 99 % 1024,5 hPa 0,0 l/m 0 min 0 min 0,000 mm 0,0 UV-I 0 W/m 5,1 C 5,2 C 0,0 km/h (0 Bft) 96 %
01.12.2022 04:00 5,2 C 99 % 1024,5 hPa 0,0 l/m 0 min 0 min 0,000 mm 0,0 UV-I 0 W/m 5,1 C 5,2 C 0,0 km/h (0 Bft) 98 %
01.12.2022 03:58 5,2 C 99 % 1024,5 hPa 0,0 l/m 0 min 0 min 0,000 mm 0,0 UV-I 0 W/m 5,1 C 5,2 C 0,0 km/h (0 Bft) 98 %
01.12.2022 03:56 5,2 C 99 % 1024,5 hPa 0,0 l/m 0 min 0 min 0,000 mm 0,0 UV-I 0 W/m 5,1 C 5,2 C 0,0 km/h (0 Bft) 96 %
01.12.2022 03:54 5,2 C 99 % 1024,5 hPa 0,0 l/m 0 min 0 min 0,000 mm 0,0 UV-I 0 W/m 5,1 C 5,2 C 0,0 km/h (0 Bft) 96 %
01.12.2022 03:52 5,2 C 99 % 1024,5 hPa 0,0 l/m 0 min 0 min 0,000 mm 0,0 UV-I 0 W/m 5,1 C 5,2 C 0,0 km/h (0 Bft) 98 %
01.12.2022 03:50 5,2 C 99 % 1024,4 hPa 0,0 l/m 0 min 0 min 0,000 mm 0,0 UV-I 0 W/m 5,1 C 5,2 C 0,0 km/h (0 Bft) 96 %
01.12.2022 03:48 5,2 C 99 % 1024,6 hPa 0,0 l/m 0 min 0 min 0,000 mm 0,0 UV-I 0 W/m 5,1 C 5,2 C 0,0 km/h (0 Bft) 96 %
01.12.2022 03:46 5,2 C 99 % 1024,6 hPa 0,0 l/m 0 min 0 min 0,000 mm 0,0 UV-I 0 W/m 5,1 C 5,2 C 0,0 km/h (0 Bft) 96 %
01.12.2022 03:44 5,2 C 99 % 1024,6 hPa 0,0 l/m 0 min 0 min 0,000 mm 0,0 UV-I 0 W/m 5,1 C 5,2 C 0,0 km/h (0 Bft) 96 %
01.12.2022 03:42 5,2 C 99 % 1024,6 hPa 0,0 l/m 0 min 0 min 0,000 mm 0,0 UV-I 0 W/m 5,1 C 5,2 C 0,0 km/h (0 Bft) 98 %
01.12.2022 03:40 5,2 C 99 % 1024,6 hPa 0,0 l/m 0 min 0 min 0,000 mm 0,0 UV-I 0 W/m 5,1 C 5,2 C 0,0 km/h (0 Bft) 96 %
01.12.2022 03:38 5,2 C 99 % 1024,5 hPa 0,0 l/m 0 min 0 min 0,000 mm 0,0 UV-I 0 W/m 5,1 C 5,2 C 0,0 km/h (0 Bft) 96 %
01.12.2022 03:36 5,2 C 99 % 1024,6 hPa 0,0 l/m 0 min 0 min 0,000 mm 0,0 UV-I 0 W/m 5,1 C 5,2 C 0,0 km/h (0 Bft) 98 %
01.12.2022 03:34 5,2 C 99 % 1024,6 hPa 0,0 l/m 0 min 0 min 0,000 mm 0,0 UV-I 0 W/m 5,1 C 5,2 C 0,0 km/h (0 Bft) 96 %
01.12.2022 03:32 5,2 C 99 % 1024,6 hPa 0,0 l/m 0 min 0 min 0,000 mm 0,0 UV-I 0 W/m 5,1 C 5,2 C 0,0 km/h (0 Bft) 98 %
01.12.2022 03:30 5,2 C 99 % 1024,6 hPa 0,0 l/m 0 min 0 min 0,000 mm 0,0 UV-I 0 W/m 5,1 C 5,2 C 0,0 km/h (0 Bft) 96 %
01.12.2022 03:28 5,3 C 99 % 1024,6 hPa 0,0 l/m 0 min 0 min 0,000 mm 0,0 UV-I 0 W/m 5,2 C 5,3 C 0,0 km/h (0 Bft) 98 %
01.12.2022 03:26 5,3 C 99 % 1024,6 hPa 0,0 l/m 0 min 0 min 0,000 mm 0,0 UV-I 0 W/m 5,2 C 5,3 C 0,0 km/h (0 Bft) 96 %
01.12.2022 03:24 5,3 C 99 % 1024,7 hPa 0,0 l/m 0 min 0 min 0,000 mm 0,0 UV-I 0 W/m 5,2 C 5,3 C 0,0 km/h (0 Bft) 96 %
01.12.2022 03:22 5,3 C 99 % 1024,6 hPa 0,0 l/m 0 min 0 min 0,000 mm 0,0 UV-I 0 W/m 5,2 C 5,3 C 0,0 km/h (0 Bft) 93 %
01.12.2022 03:20 5,3 C 99 % 1024,7 hPa 0,0 l/m 0 min 0 min 0,000 mm 0,0 UV-I 0 W/m 5,2 C 5,3 C 0,0 km/h (0 Bft) 98 %
01.12.2022 03:18 5,3 C 99 % 1024,7 hPa 0,0 l/m 0 min 0 min 0,000 mm 0,0 UV-I 0 W/m 5,2 C 5,3 C 0,0 km/h (0 Bft) 100 %
01.12.2022 03:16 5,3 C 99 % 1024,7 hPa 0,0 l/m 0 min 0 min 0,000 mm 0,0 UV-I 0 W/m 5,2 C 5,3 C 0,0 km/h (0 Bft) 96 %
01.12.2022 03:14 5,3 C 99 % 1024,6 hPa 0,0 l/m 0 min 0 min 0,000 mm 0,0 UV-I 0 W/m 5,2 C 5,3 C 0,0 km/h (0 Bft) 100 %
01.12.2022 03:12 5,3 C 99 % 1024,6 hPa 0,0 l/m 0 min 0 min 0,000 mm 0,0 UV-I 0 W/m 5,2 C 5,3 C 0,0 km/h (0 Bft) 98 %
01.12.2022 03:10 5,3 C 99 % 1024,6 hPa 0,0 l/m 0 min 0 min 0,000 mm 0,0 UV-I 0 W/m 5,2 C 5,3 C 0,0 km/h (0 Bft) 100 %
01.12.2022 03:08 5,3 C 99 % 1024,6 hPa 0,0 l/m 0 min 0 min 0,000 mm 0,0 UV-I 0 W/m 5,2 C 5,3 C 0,0 km/h (0 Bft) 100 %
01.12.2022 03:06 5,3 C 99 % 1024,6 hPa 0,0 l/m 0 min 0 min 0,000 mm 0,0 UV-I 0 W/m 5,2 C 5,3 C 0,0 km/h (0 Bft) 100 %
01.12.2022 03:04 5,3 C 99 % 1024,7 hPa 0,0 l/m 0 min 0 min 0,000 mm 0,0 UV-I 0 W/m 5,2 C 5,3 C 0,0 km/h (0 Bft) 100 %
01.12.2022 03:02 5,3 C 99 % 1024,6 hPa 0,0 l/m 0 min 0 min 0,000 mm 0,0 UV-I 0 W/m 5,2 C 5,3 C 0,0 km/h (0 Bft) 100 %
01.12.2022 03:00 5,3 C 99 % 1024,6 hPa 0,0 l/m 0 min 0 min 0,000 mm 0,0 UV-I 0 W/m 5,2 C 5,3 C 0,0 km/h (0 Bft) 100 %
01.12.2022 02:58 5,3 C 99 % 1024,5 hPa 0,0 l/m 0 min 0 min 0,000 mm 0,0 UV-I 0 W/m 5,2 C 5,3 C 0,0 km/h (0 Bft) 100 %
01.12.2022 02:56 5,3 C 99 % 1024,6 hPa 0,0 l/m 0 min 0 min 0,000 mm 0,0 UV-I 0 W/m 5,2 C 5,3 C 0,0 km/h (0 Bft) 100 %
01.12.2022 02:54 5,3 C 99 % 1024,6 hPa 0,0 l/m 0 min 0 min 0,000 mm 0,0 UV-I 0 W/m 5,2 C 5,3 C 0,0 km/h (0 Bft) 100 %
01.12.2022 02:52 5,3 C 99 % 1024,6 hPa 0,0 l/m 0 min 0 min 0,000 mm 0,0 UV-I 0 W/m 5,2 C 5,3 C 0,0 km/h (0 Bft) 100 %
01.12.2022 02:50 5,3 C 99 % 1024,6 hPa 0,0 l/m 0 min 0 min 0,000 mm 0,0 UV-I 0 W/m 5,2 C 5,3 C 0,0 km/h (0 Bft) 98 %
01.12.2022 02:48 5,3 C 99 % 1024,6 hPa 0,0 l/m 0 min 0 min 0,000 mm 0,0 UV-I 0 W/m 5,2 C 5,3 C 0,0 km/h (0 Bft) 98 %
01.12.2022 02:46 5,3 C 99 % 1024,6 hPa 0,0 l/m 0 min 0 min 0,000 mm 0,0 UV-I 0 W/m 5,2 C 5,3 C 0,0 km/h (0 Bft) 100 %
01.12.2022 02:44 5,3 C 99 % 1024,6 hPa 0,0 l/m 0 min 0 min 0,000 mm 0,0 UV-I 0 W/m 5,2 C 5,3 C 0,0 km/h (0 Bft) 96 %
01.12.2022 02:42 5,3 C 99 % 1024,5 hPa 0,0 l/m 0 min 0 min 0,000 mm 0,0 UV-I 0 W/m 5,2 C 5,3 C 0,0 km/h (0 Bft) 100 %
01.12.2022 02:40 5,3 C 99 % 1024,5 hPa 0,0 l/m 0 min 0 min 0,000 mm 0,0 UV-I 0 W/m 5,2 C 5,3 C 0,0 km/h (0 Bft) 100 %
01.12.2022 02:38 5,3 C 99 % 1024,5 hPa 0,0 l/m 0 min 0 min 0,000 mm 0,0 UV-I 0 W/m 5,2 C 5,3 C 0,0 km/h (0 Bft) 98 %
01.12.2022 02:36 5,3 C 99 % 1024,6 hPa 0,0 l/m 0 min 0 min 0,000 mm 0,0 UV-I 0 W/m 5,2 C 5,3 C 0,0 km/h (0 Bft) 100 %
01.12.2022 02:34 5,3 C 99 % 1024,5 hPa 0,0 l/m 0 min 0 min 0,000 mm 0,0 UV-I 0 W/m 5,2 C 5,3 C 0,0 km/h (0 Bft) 100 %
01.12.2022 02:32 5,3 C 99 % 1024,6 hPa 0,0 l/m 0 min 0 min 0,000 mm 0,0 UV-I 0 W/m 5,2 C 5,3 C 0,0 km/h (0 Bft) 98 %
01.12.2022 02:30 5,3 C 99 % 1024,6 hPa 0,0 l/m 0 min 0 min 0,000 mm 0,0 UV-I 0 W/m 5,2 C 5,3 C 0,0 km/h (0 Bft) 94 %
01.12.2022 02:28 5,3 C 99 % 1024,5 hPa 0,0 l/m 0 min 0 min 0,000 mm 0,0 UV-I 0 W/m 5,2 C 5,3 C 0,0 km/h (0 Bft) 100 %
01.12.2022 02:26 5,3 C 99 % 1024,5 hPa 0,0 l/m 0 min 0 min 0,000 mm 0,0 UV-I 0 W/m 5,2 C 5,3 C 0,0 km/h (0 Bft) 100 %
01.12.2022 02:24 5,3 C 99 % 1024,5 hPa 0,0 l/m 0 min 0 min 0,000 mm 0,0 UV-I 0 W/m 5,2 C 5,3 C 0,0 km/h (0 Bft) 98 %
01.12.2022 02:22 5,3 C 99 % 1024,5 hPa 0,0 l/m 0 min 0 min 0,000 mm 0,0 UV-I 0 W/m 5,2 C 5,3 C 0,0 km/h (0 Bft) 96 %
01.12.2022 02:20 5,4 C 99 % 1024,5 hPa 0,0 l/m 0 min 0 min 0,000 mm 0,0 UV-I 0 W/m 5,3 C 5,4 C 0,0 km/h (0 Bft) 96 %
01.12.2022 02:18 5,4 C 99 % 1024,4 hPa 0,0 l/m 0 min 0 min 0,000 mm 0,0 UV-I 0 W/m 5,3 C 5,4 C 0,0 km/h (0 Bft) 96 %
01.12.2022 02:16 5,4 C 99 % 1024,4 hPa 0,0 l/m 0 min 0 min 0,000 mm 0,0 UV-I 0 W/m 5,3 C 5,4 C 0,0 km/h (0 Bft) 94 %
01.12.2022 02:14 5,4 C 99 % 1024,4 hPa 0,0 l/m 0 min 0 min 0,000 mm 0,0 UV-I 0 W/m 5,3 C 5,4 C 0,0 km/h (0 Bft) 94 %
01.12.2022 02:12 5,4 C 99 % 1024,4 hPa 0,0 l/m 0 min 0 min 0,000 mm 0,0 UV-I 0 W/m 5,3 C 5,4 C 0,0 km/h (0 Bft) 91 %
01.12.2022 02:10 5,4 C 99 % 1024,3 hPa 0,0 l/m 0 min 0 min 0,000 mm 0,0 UV-I 0 W/m 5,3 C 5,4 C 0,0 km/h (0 Bft) 89 %
01.12.2022 02:08 5,4 C 99 % 1024,3 hPa 0,0 l/m 0 min 0 min 0,000 mm 0,0 UV-I 0 W/m 5,3 C 5,4 C 0,0 km/h (0 Bft) 94 %
01.12.2022 02:06 5,4 C 99 % 1024,3 hPa 0,0 l/m 0 min 0 min 0,000 mm 0,0 UV-I 0 W/m 5,3 C 5,4 C 0,0 km/h (0 Bft) 91 %
01.12.2022 02:04 5,4 C 99 % 1024,3 hPa 0,0 l/m 0 min 0 min 0,000 mm 0,0 UV-I 0 W/m 5,3 C 5,4 C 0,0 km/h (0 Bft) 93 %
01.12.2022 02:02 5,4 C 99 % 1024,3 hPa 0,0 l/m 0 min 0 min 0,000 mm 0,0 UV-I 0 W/m 5,3 C 5,4 C 0,0 km/h (0 Bft) 94 %
01.12.2022 02:00 5,4 C 99 % 1024,3 hPa 0,0 l/m 0 min 0 min 0,000 mm 0,0 UV-I 0 W/m 5,3 C 5,4 C 0,0 km/h (0 Bft) 96 %
01.12.2022 01:58 5,4 C 99 % 1024,2 hPa 0,0 l/m 0 min 0 min 0,000 mm 0,0 UV-I 0 W/m 5,3 C 5,4 C 0,0 km/h (0 Bft) 94 %
01.12.2022 01:56 5,4 C 99 % 1024,3 hPa 0,0 l/m 0 min 0 min 0,000 mm 0,0 UV-I 0 W/m 5,3 C 5,4 C 0,0 km/h (0 Bft) 96 %
01.12.2022 01:54 5,4 C 99 % 1024,2 hPa 0,0 l/m 0 min 0 min 0,000 mm 0,0 UV-I 0 W/m 5,3 C 5,4 C 0,0 km/h (0 Bft) 94 %
01.12.2022 01:52 5,4 C 99 % 1024,2 hPa 0,0 l/m 0 min 0 min 0,000 mm 0,0 UV-I 0 W/m 5,3 C 5,4 C 0,0 km/h (0 Bft) 98 %
01.12.2022 01:50 5,4 C 99 % 1024,2 hPa 0,0 l/m 0 min 0 min 0,000 mm 0,0 UV-I 0 W/m 5,3 C 5,4 C 0,0 km/h (0 Bft) 96 %
01.12.2022 01:48 5,4 C 99 % 1024,3 hPa 0,0 l/m 0 min 0 min 0,000 mm 0,0 UV-I 0 W/m 5,3 C 5,4 C 0,0 km/h (0 Bft) 98 %
01.12.2022 01:46 5,4 C 99 % 1024,2 hPa 0,0 l/m 0 min 0 min 0,000 mm 0,0 UV-I 0 W/m 5,3 C 5,4 C 0,0 km/h (0 Bft) 98 %
01.12.2022 01:44 5,4 C 99 % 1024,3 hPa 0,0 l/m 0 min 0 min 0,000 mm 0,0 UV-I 0 W/m 5,3 C 5,4 C 0,0 km/h (0 Bft) 94 %
01.12.2022 01:42 5,4 C 99 % 1024,2 hPa 0,0 l/m 0 min 0 min 0,000 mm 0,0 UV-I 0 W/m 5,3 C 5,4 C 0,0 km/h (0 Bft) 98 %
01.12.2022 01:40 5,4 C 99 % 1024,2 hPa 0,0 l/m 0 min 0 min 0,000 mm 0,0 UV-I 0 W/m 5,3 C 5,4 C 0,0 km/h (0 Bft) 100 %
01.12.2022 01:38 5,4 C 99 % 1024,2 hPa 0,0 l/m 0 min 0 min 0,000 mm 0,0 UV-I 0 W/m 5,3 C 5,4 C 0,0 km/h (0 Bft) 96 %
01.12.2022 01:36 5,4 C 99 % 1024,2 hPa 0,0 l/m 0 min 0 min 0,000 mm 0,0 UV-I 0 W/m 5,3 C 5,4 C 0,0 km/h (0 Bft) 96 %
01.12.2022 01:34 5,4 C 99 % 1024,2 hPa 0,0 l/m 0 min 0 min 0,000 mm 0,0 UV-I 0 W/m 5,3 C 5,4 C 0,0 km/h (0 Bft) 98 %
01.12.2022 01:32 5,4 C 99 % 1024,2 hPa 0,0 l/m 0 min 0 min 0,000 mm 0,0 UV-I 0 W/m 5,3 C 5,4 C 0,0 km/h (0 Bft) 96 %
01.12.2022 01:30 5,4 C 99 % 1024,3 hPa 0,0 l/m 0 min 0 min 0,000 mm 0,0 UV-I 0 W/m 5,3 C 5,4 C 0,0 km/h (0 Bft) 98 %
01.12.2022 01:28 5,4 C 99 % 1024,3 hPa 0,0 l/m 0 min 0 min 0,000 mm 0,0 UV-I 0 W/m 5,3 C 5,4 C 0,0 km/h (0 Bft) 98 %
01.12.2022 01:26 5,4 C 99 % 1024,2 hPa 0,0 l/m 0 min 0 min 0,000 mm 0,0 UV-I 0 W/m 5,3 C 5,4 C 0,0 km/h (0 Bft) 98 %
01.12.2022 01:24 5,4 C 99 % 1024,3 hPa 0,0 l/m 0 min 0 min 0,000 mm 0,0 UV-I 0 W/m 5,3 C 5,4 C 0,0 km/h (0 Bft) 96 %
01.12.2022 01:22 5,4 C 99 % 1024,2 hPa 0,0 l/m 0 min 0 min 0,000 mm 0,0 UV-I 0 W/m 5,3 C 5,4 C 0,0 km/h (0 Bft) 98 %
01.12.2022 01:20 5,4 C 99 % 1024,3 hPa 0,0 l/m 0 min 0 min 0,000 mm 0,0 UV-I 0 W/m 5,3 C 5,4 C 0,0 km/h (0 Bft) 98 %
01.12.2022 01:18 5,4 C 99 % 1024,3 hPa 0,0 l/m 0 min 0 min 0,000 mm 0,0 UV-I 0 W/m 5,3 C 5,4 C 0,0 km/h (0 Bft) 98 %
01.12.2022 01:16 5,4 C 99 % 1024,3 hPa 0,0 l/m 0 min 0 min 0,000 mm 0,0 UV-I 0 W/m 5,3 C 5,4 C 0,0 km/h (0 Bft) 98 %
01.12.2022 01:14 5,4 C 99 % 1024,4 hPa 0,0 l/m 0 min 0 min 0,000 mm 0,0 UV-I 0 W/m 5,3 C 5,4 C 0,0 km/h (0 Bft) 98 %
01.12.2022 01:12 5,4 C 99 % 1024,3 hPa 0,0 l/m 0 min 0 min 0,000 mm 0,0 UV-I 0 W/m 5,3 C 5,4 C 0,0 km/h (0 Bft) 98 %
01.12.2022 01:10 5,5 C 99 % 1024,3 hPa 0,0 l/m 0 min 0 min 0,000 mm 0,0 UV-I 0 W/m 5,4 C 5,5 C 0,0 km/h (0 Bft) 98 %
01.12.2022 01:08 5,5 C 99 % 1024,3 hPa 0,0 l/m 0 min 0 min 0,000 mm 0,0 UV-I 0 W/m 5,4 C 5,5 C 0,0 km/h (0 Bft) 98 %
01.12.2022 01:06 5,5 C 99 % 1024,4 hPa 0,0 l/m 0 min 0 min 0,000 mm 0,0 UV-I 0 W/m 5,4 C 5,5 C 0,0 km/h (0 Bft) 98 %
01.12.2022 01:04 5,5 C 99 % 1024,4 hPa 0,0 l/m 0 min 0 min 0,000 mm 0,0 UV-I 0 W/m 5,4 C 5,5 C 0,0 km/h (0 Bft) 96 %
01.12.2022 01:00 5,5 C 99 % 1024,3 hPa 0,0 l/m 0 min 0 min 0,000 mm 0,0 UV-I 0 W/m 5,4 C 5,5 C 0,0 km/h (0 Bft) 100 %
01.12.2022 00:58 5,5 C 99 % 1024,3 hPa 0,0 l/m 0 min 0 min 0,000 mm 0,0 UV-I 0 W/m 5,4 C 5,5 C 0,0 km/h (0 Bft) 98 %
01.12.2022 00:56 5,5 C 99 % 1024,3 hPa 0,0 l/m 0 min 0 min 0,000 mm 0,0 UV-I 0 W/m 5,4 C 5,5 C 0,0 km/h (0 Bft) 98 %
01.12.2022 00:54 5,5 C 99 % 1024,3 hPa 0,0 l/m 0 min 0 min 0,000 mm 0,0 UV-I 0 W/m 5,4 C 5,5 C 0,0 km/h (0 Bft) 98 %
01.12.2022 00:52 5,5 C 99 % 1024,4 hPa 0,0 l/m 0 min 0 min 0,000 mm 0,0 UV-I 0 W/m 5,4 C 5,5 C 0,0 km/h (0 Bft) 93 %
01.12.2022 00:50 5,5 C 99 % 1024,4 hPa 0,0 l/m 0 min 0 min 0,000 mm 0,0 UV-I 0 W/m 5,4 C 5,5 C 0,0 km/h (0 Bft) 98 %
01.12.2022 00:48 5,5 C 99 % 1024,4 hPa 0,0 l/m 0 min 0 min 0,000 mm 0,0 UV-I 0 W/m 5,4 C 5,5 C 0,0 km/h (0 Bft) 98 %
01.12.2022 00:46 5,5 C 99 % 1024,4 hPa 0,0 l/m 0 min 0 min 0,000 mm 0,0 UV-I 0 W/m 5,4 C 5,5 C 0,0 km/h (0 Bft) 98 %
01.12.2022 00:44 5,6 C 99 % 1024,4 hPa 0,0 l/m 0 min 0 min 0,000 mm 0,0 UV-I 0 W/m 5,5 C 5,6 C 0,0 km/h (0 Bft) 98 %
01.12.2022 00:42 5,6 C 99 % 1024,4 hPa 0,0 l/m 0 min 0 min 0,000 mm 0,0 UV-I 0 W/m 5,5 C 5,6 C 0,0 km/h (0 Bft) 96 %
01.12.2022 00:40 5,6 C 99 % 1024,4 hPa 0,2 l/m 0 min 0 min 0,000 mm 0,0 UV-I 0 W/m 5,5 C 5,6 C 0,0 km/h (0 Bft) 96 %
01.12.2022 00:38 5,6 C 99 % 1024,4 hPa 0,0 l/m 0 min 0 min 0,000 mm 0,0 UV-I 0 W/m 5,5 C 5,6 C 0,0 km/h (0 Bft) 98 %
01.12.2022 00:36 5,6 C 99 % 1024,4 hPa 0,0 l/m 0 min 0 min 0,000 mm 0,0 UV-I 0 W/m 5,5 C 5,6 C 0,0 km/h (0 Bft) 98 %
01.12.2022 00:34 5,6 C 99 % 1024,4 hPa 0,0 l/m 0 min 0 min 0,000 mm 0,0 UV-I 0 W/m 5,5 C 5,6 C 0,0 km/h (0 Bft) 96 %
01.12.2022 00:32 5,6 C 99 % 1024,4 hPa 0,0 l/m 0 min 0 min 0,000 mm 0,0 UV-I 0 W/m 5,5 C 5,6 C 0,0 km/h (0 Bft) 98 %
01.12.2022 00:30 5,6 C 99 % 1024,4 hPa 0,0 l/m 0 min 0 min 0,000 mm 0,0 UV-I 0 W/m 5,5 C 5,6 C 0,0 km/h (0 Bft) 96 %
01.12.2022 00:28 5,6 C 99 % 1024,4 hPa 0,0 l/m 0 min 0 min 0,000 mm 0,0 UV-I 0 W/m 5,5 C 5,6 C 0,0 km/h (0 Bft) 98 %
01.12.2022 00:26 5,6 C 99 % 1024,4 hPa 0,0 l/m 0 min 0 min 0,000 mm 0,0 UV-I 0 W/m 5,5 C 5,6 C 0,0 km/h (0 Bft) 96 %
01.12.2022 00:24 5,6 C 99 % 1024,4 hPa 0,0 l/m 0 min 0 min 0,000 mm 0,0 UV-I 0 W/m 5,5 C 5,6 C 0,0 km/h (0 Bft) 94 %
01.12.2022 00:20 5,6 C 99 % 1024,4 hPa 0,0 l/m 0 min 0 min 0,000 mm 0,0 UV-I 0 W/m 5,5 C 5,6 C 0,0 km/h (0 Bft) 98 %
01.12.2022 00:18 5,6 C 99 % 1024,4 hPa 0,0 l/m 0 min 0 min 0,000 mm 0,0 UV-I 0 W/m 5,5 C 5,6 C 0,0 km/h (0 Bft) 98 %
01.12.2022 00:16 5,6 C 99 % 1024,4 hPa 0,0 l/m 0 min 0 min 0,000 mm 0,0 UV-I 0 W/m 5,5 C 5,6 C 0,0 km/h (0 Bft) 96 %
01.12.2022 00:14 5,6 C 99 % 1024,4 hPa 0,0 l/m 0 min 0 min 0,000 mm 0,0 UV-I 0 W/m 5,5 C 5,6 C 0,0 km/h (0 Bft) 98 %
01.12.2022 00:12 5,6 C 99 % 1024,4 hPa 0,0 l/m 0 min 0 min 0,000 mm 0,0 UV-I 0 W/m 5,5 C 5,6 C 0,0 km/h (0 Bft) 96 %
01.12.2022 00:10 5,6 C 99 % 1024,4 hPa 0,0 l/m 0 min 0 min 0,000 mm 0,0 UV-I 0 W/m 5,5 C 5,6 C 0,0 km/h (0 Bft) 96 %
01.12.2022 00:08 5,6 C 99 % 1024,4 hPa 0,0 l/m 0 min 0 min 0,000 mm 0,0 UV-I 0 W/m 5,5 C 5,6 C 0,0 km/h (0 Bft) 98 %
01.12.2022 00:06 5,6 C 99 % 1024,4 hPa 0,0 l/m 0 min 0 min 0,000 mm 0,0 UV-I 0 W/m 5,5 C 5,6 C 0,0 km/h (0 Bft) 100 %
01.12.2022 00:04 5,6 C 99 % 1024,4 hPa 0,0 l/m 0 min 0 min 0,000 mm 0,0 UV-I 0 W/m 5,5 C 5,6 C 0,0 km/h (0 Bft) 100 %
01.12.2022 00:00 5,6 C 99 % 1024,3 hPa 0,0 l/m 0 min 0 min 0,000 mm 0,0 UV-I 0 W/m 5,5 C 5,6 C 0,0 km/h (0 Bft) 100 %
30.11.2022 23:58 5,6 C 99 % 1024,3 hPa 0,0 l/m 0 min 0 min 0,000 mm 0,0 UV-I 0 W/m 5,5 C 5,6 C 0,0 km/h (0 Bft) 100 %
30.11.2022 23:56 5,6 C 99 % 1024,3 hPa 0,0 l/m 0 min 0 min 0,000 mm 0,0 UV-I 0 W/m 5,5 C 5,6 C 0,0 km/h (0 Bft) 100 %
30.11.2022 23:54 5,6 C 99 % 1024,3 hPa 0,0 l/m 0 min 0 min 0,000 mm 0,0 UV-I 0 W/m 5,5 C 5,6 C 0,0 km/h (0 Bft) 100 %
30.11.2022 23:52 5,6 C 99 % 1024,3 hPa 0,0 l/m 0 min 0 min 0,000 mm 0,0 UV-I 0 W/m 5,5 C 5,6 C 0,0 km/h (0 Bft) 98 %
30.11.2022 23:50 5,6 C 99 % 1024,3 hPa 0,0 l/m 0 min 0 min 0,000 mm 0,0 UV-I 0 W/m 5,5 C 5,6 C 0,0 km/h (0 Bft) 100 %
30.11.2022 23:48 5,6 C 99 % 1024,3 hPa 0,0 l/m 0 min 0 min 0,000 mm 0,0 UV-I 0 W/m 5,5 C 5,6 C 0,0 km/h (0 Bft) 98 %
30.11.2022 23:46 5,6 C 99 % 1024,3 hPa 0,0 l/m 0 min 0 min 0,000 mm 0,0 UV-I 0 W/m 5,5 C 5,6 C 0,0 km/h (0 Bft) 98 %
30.11.2022 23:44 5,6 C 99 % 1024,3 hPa 0,0 l/m 0 min 0 min 0,000 mm 0,0 UV-I 0 W/m 5,5 C 5,6 C 0,0 km/h (0 Bft) 98 %
30.11.2022 23:42 5,6 C 99 % 1024,3 hPa 0,0 l/m 0 min 0 min 0,000 mm 0,0 UV-I 0 W/m 5,5 C 5,6 C 0,0 km/h (0 Bft) 100 %
30.11.2022 23:40 5,7 C 99 % 1024,3 hPa 0,0 l/m 0 min 0 min 0,000 mm 0,0 UV-I 0 W/m 5,6 C 5,7 C 0,0 km/h (0 Bft) 98 %
30.11.2022 23:38 5,7 C 99 % 1024,3 hPa 0,0 l/m 0 min 0 min 0,000 mm 0,0 UV-I 0 W/m 5,6 C 5,7 C 0,0 km/h (0 Bft) 96 %
30.11.2022 23:36 5,7 C 99 % 1024,2 hPa 0,0 l/m 0 min 0 min 0,000 mm 0,0 UV-I 0 W/m 5,6 C 5,7 C 0,0 km/h (0 Bft) 98 %
30.11.2022 23:34 5,7 C 99 % 1024,2 hPa 0,0 l/m 0 min 0 min 0,000 mm 0,0 UV-I 0 W/m 5,6 C 5,7 C 0,0 km/h (0 Bft) 98 %
30.11.2022 23:32 5,7 C 99 % 1024,3 hPa 0,0 l/m 0 min 0 min 0,000 mm 0,0 UV-I 0 W/m 5,6 C 5,7 C 0,0 km/h (0 Bft) 96 %
30.11.2022 23:30 5,7 C 99 % 1024,2 hPa 0,0 l/m 0 min 0 min 0,000 mm 0,0 UV-I 0 W/m 5,6 C 5,7 C 4,8 km/h (1 Bft) 96 %
30.11.2022 23:28 5,7 C 99 % 1024,2 hPa 0,0 l/m 0 min 0 min 0,000 mm 0,0 UV-I 0 W/m 5,6 C 5,7 C 4,8 km/h (1 Bft) 98 %
30.11.2022 23:26 5,7 C 99 % 1024,2 hPa 0,0 l/m 0 min 0 min 0,000 mm 0,0 UV-I 0 W/m 5,6 C 5,7 C 0,0 km/h (0 Bft) 98 %
30.11.2022 23:24 5,7 C 99 % 1024,2 hPa 0,0 l/m 0 min 0 min 0,000 mm 0,0 UV-I 0 W/m 5,6 C 5,7 C 1,6 km/h (1 Bft) 98 %
30.11.2022 23:22 5,7 C 99 % 1024,2 hPa 0,0 l/m 0 min 0 min 0,000 mm 0,0 UV-I 0 W/m 5,6 C 5,7 C 3,2 km/h (1 Bft) 96 %
30.11.2022 23:20 5,7 C 99 % 1024,3 hPa 0,0 l/m 0 min 0 min 0,000 mm 0,0 UV-I 0 W/m 5,6 C 5,7 C 0,0 km/h (0 Bft) 96 %
30.11.2022 23:18 5,7 C 99 % 1024,3 hPa 0,0 l/m 0 min 0 min 0,000 mm 0,0 UV-I 0 W/m 5,6 C 5,7 C 0,0 km/h (0 Bft) 98 %
30.11.2022 23:16 5,7 C 99 % 1024,2 hPa 0,0 l/m 0 min 0 min 0,000 mm 0,0 UV-I 0 W/m 5,6 C 5,7 C 0,0 km/h (0 Bft) 98 %
30.11.2022 23:14 5,7 C 99 % 1024,2 hPa 0,0 l/m 0 min 0 min 0,000 mm 0,0 UV-I 0 W/m 5,6 C 5,7 C 8,0 km/h (2 Bft) 100 %
30.11.2022 23:12 5,7 C 99 % 1024,2 hPa 0,0 l/m 0 min 0 min 0,000 mm 0,0 UV-I 0 W/m 5,6 C 5,7 C 0,0 km/h (0 Bft) 100 %
30.11.2022 23:10 5,7 C 99 % 1024,3 hPa 0,0 l/m 0 min 0 min 0,000 mm 0,0 UV-I 0 W/m 5,6 C 5,7 C 0,0 km/h (0 Bft) 96 %
30.11.2022 23:08 5,7 C 99 % 1024,3 hPa 0,0 l/m 0 min 0 min 0,000 mm 0,0 UV-I 0 W/m 5,6 C 5,7 C 0,0 km/h (0 Bft) 98 %
30.11.2022 23:06 5,7 C 99 % 1024,3 hPa 0,0 l/m 0 min 0 min 0,000 mm 0,0 UV-I 0 W/m 5,6 C 5,7 C 0,0 km/h (0 Bft) 100 %
30.11.2022 23:04 5,7 C 99 % 1024,3 hPa 0,0 l/m 0 min 0 min 0,000 mm 0,0 UV-I 0 W/m 5,6 C 5,7 C 9,7 km/h (2 Bft) 99 %
30.11.2022 23:00 5,7 C 99 % 1024,3 hPa 0,0 l/m 0 min 0 min 0,000 mm 0,0 UV-I 0 W/m 5,6 C 5,7 C 0,0 km/h (0 Bft) 100 %
30.11.2022 22:58 5,7 C 99 % 1024,3 hPa 0,0 l/m 0 min 0 min 0,000 mm 0,0 UV-I 0 W/m 5,6 C 5,7 C 4,8 km/h (1 Bft) 100 %
30.11.2022 22:56 5,7 C 99 % 1024,3 hPa 0,0 l/m 0 min 0 min 0,000 mm 0,0 UV-I 0 W/m 5,6 C 5,7 C 0,0 km/h (0 Bft) 98 %
30.11.2022 22:54 5,7 C 99 % 1024,3 hPa 0,0 l/m 0 min 0 min 0,000 mm 0,0 UV-I 0 W/m 5,6 C 5,7 C 0,0 km/h (0 Bft) 100 %
30.11.2022 22:52 5,7 C 99 % 1024,3 hPa 0,0 l/m 0 min 0 min 0,000 mm 0,0 UV-I 0 W/m 5,6 C 5,7 C 0,0 km/h (0 Bft) 98 %
30.11.2022 22:50 5,7 C 99 % 1024,3 hPa 0,0 l/m 0 min 0 min 0,000 mm 0,0 UV-I 0 W/m 5,6 C 5,7 C 0,0 km/h (0 Bft) 98 %
30.11.2022 22:48 5,7 C 99 % 1024,3 hPa 0,0 l/m 0 min 0 min 0,000 mm 0,0 UV-I 0 W/m 5,6 C 5,7 C 0,0 km/h (0 Bft) 98 %
30.11.2022 22:46 5,7 C 99 % 1024,3 hPa 0,0 l/m 0 min 0 min 0,000 mm 0,0 UV-I 0 W/m 5,6 C 5,7 C 0,0 km/h (0 Bft) 98 %
30.11.2022 22:44 5,7 C 99 % 1024,3 hPa 0,0 l/m 0 min 0 min 0,000 mm 0,0 UV-I 0 W/m 5,6 C 5,7 C 0,0 km/h (0 Bft) 93 %
30.11.2022 22:42 5,7 C 99 % 1024,3 hPa 0,0 l/m 0 min 0 min 0,000 mm 0,0 UV-I 0 W/m 5,6 C 5,7 C 0,0 km/h (0 Bft) 98 %
30.11.2022 22:40 5,7 C 99 % 1024,3 hPa 0,0 l/m 0 min 0 min 0,000 mm 0,0 UV-I 0 W/m 5,6 C 5,7 C 0,0 km/h (0 Bft) 98 %
30.11.2022 22:38 5,7 C 99 % 1024,4 hPa 0,0 l/m 0 min 0 min 0,000 mm 0,0 UV-I 0 W/m 5,6 C 5,7 C 0,0 km/h (0 Bft) 96 %
30.11.2022 22:36 5,7 C 99 % 1024,4 hPa 0,0 l/m 0 min 0 min 0,000 mm 0,0 UV-I 0 W/m 5,6 C 5,7 C 0,0 km/h (0 Bft) 96 %
30.11.2022 22:34 5,7 C 99 % 1024,4 hPa 0,0 l/m 0 min 0 min 0,000 mm 0,0 UV-I 0 W/m 5,6 C 5,7 C 0,0 km/h (0 Bft) 98 %
30.11.2022 22:32 5,7 C 99 % 1024,4 hPa 0,0 l/m 0 min 0 min 0,000 mm 0,0 UV-I 0 W/m 5,6 C 5,7 C 0,0 km/h (0 Bft) 98 %
30.11.2022 22:30 5,7 C 99 % 1024,4 hPa 0,0 l/m 0 min 0 min 0,000 mm 0,0 UV-I 0 W/m 5,6 C 5,7 C 0,0 km/h (0 Bft) 98 %
30.11.2022 22:28 5,7 C 99 % 1024,3 hPa 0,0 l/m 0 min 0 min 0,000 mm 0,0 UV-I 0 W/m 5,6 C 5,7 C 0,0 km/h (0 Bft) 98 %
30.11.2022 22:26 5,7 C 99 % 1024,4 hPa 0,0 l/m 0 min 0 min 0,000 mm 0,0 UV-I 0 W/m 5,6 C 5,7 C 0,0 km/h (0 Bft) 96 %
30.11.2022 22:24 5,7 C 99 % 1024,3 hPa 0,0 l/m 0 min 0 min 0,000 mm 0,0 UV-I 0 W/m 5,6 C 5,7 C 0,0 km/h (0 Bft) 98 %
30.11.2022 22:22 5,7 C 99 % 1024,3 hPa 0,0 l/m 0 min 0 min 0,000 mm 0,0 UV-I 0 W/m 5,6 C 5,7 C 0,0 km/h (0 Bft) 96 %
30.11.2022 22:20 5,7 C 99 % 1024,4 hPa 0,0 l/m 0 min 0 min 0,000 mm 0,0 UV-I 0 W/m 5,6 C 5,7 C 0,0 km/h (0 Bft) 96 %
30.11.2022 22:18 5,7 C 99 % 1024,4 hPa 0,0 l/m 0 min 0 min 0,000 mm 0,0 UV-I 0 W/m 5,6 C 5,7 C 0,0 km/h (0 Bft) 98 %
30.11.2022 22:16 5,7 C 99 % 1024,3 hPa 0,0 l/m 0 min 0 min 0,000 mm 0,0 UV-I 0 W/m 5,6 C 5,7 C 0,0 km/h (0 Bft) 98 %
30.11.2022 22:14 5,7 C 99 % 1024,4 hPa 0,0 l/m 0 min 0 min 0,000 mm 0,0 UV-I 0 W/m 5,6 C 5,7 C 0,0 km/h (0 Bft) 98 %
30.11.2022 22:12 5,7 C 99 % 1024,3 hPa 0,0 l/m 0 min 0 min 0,000 mm 0,0 UV-I 0 W/m 5,6 C 5,7 C 0,0 km/h (0 Bft) 98 %
30.11.2022 22:10 5,7 C 99 % 1024,4 hPa 0,0 l/m 0 min 0 min 0,000 mm 0,0 UV-I 0 W/m 5,6 C 5,7 C 0,0 km/h (0 Bft) 98 %
30.11.2022 22:08 5,7 C 99 % 1024,3 hPa 0,0 l/m 0 min 0 min 0,000 mm 0,0 UV-I 0 W/m 5,6 C 5,7 C 0,0 km/h (0 Bft) 98 %
30.11.2022 22:06 5,7 C 99 % 1024,3 hPa 0,0 l/m 0 min 0 min 0,000 mm 0,0 UV-I 0 W/m 5,6 C 5,7 C 0,0 km/h (0 Bft) 98 %
30.11.2022 22:04 5,7 C 99 % 1024,3 hPa 0,0 l/m 0 min 0 min 0,000 mm 0,0 UV-I 0 W/m 5,6 C 5,7 C 0,0 km/h (0 Bft) 95 %
30.11.2022 22:00 5,7 C 99 % 1024,2 hPa 0,0 l/m 0 min 0 min 0,000 mm 0,0 UV-I 0 W/m 5,6 C 5,7 C 0,0 km/h (0 Bft) 98 %
30.11.2022 21:58 5,7 C 99 % 1024,2 hPa 0,0 l/m 0 min 0 min 0,000 mm 0,0 UV-I 0 W/m 5,6 C 5,7 C 0,0 km/h (0 Bft) 98 %
30.11.2022 21:56 5,7 C 99 % 1024,3 hPa 0,0 l/m 0 min 0 min 0,000 mm 0,0 UV-I 0 W/m 5,6 C 5,7 C 0,0 km/h (0 Bft) 98 %
30.11.2022 21:54 5,7 C 99 % 1024,2 hPa 0,0 l/m 0 min 0 min 0,000 mm 0,0 UV-I 0 W/m 5,6 C 5,7 C 0,0 km/h (0 Bft) 100 %
30.11.2022 21:52 5,7 C 99 % 1024,2 hPa 0,0 l/m 0 min 0 min 0,000 mm 0,0 UV-I 0 W/m 5,6 C 5,7 C 0,0 km/h (0 Bft) 98 %
30.11.2022 21:50 5,7 C 99 % 1024,3 hPa 0,0 l/m 0 min 0 min 0,000 mm 0,0 UV-I 0 W/m 5,6 C 5,7 C 0,0 km/h (0 Bft) 96 %
30.11.2022 21:48 5,7 C 99 % 1024,2 hPa 0,0 l/m 0 min 0 min 0,000 mm 0,0 UV-I 0 W/m 5,6 C 5,7 C 0,0 km/h (0 Bft) 98 %
30.11.2022 21:46 5,7 C 99 % 1024,3 hPa 0,0 l/m 0 min 0 min 0,000 mm 0,0 UV-I 0 W/m 5,6 C 5,7 C 4,8 km/h (1 Bft) 98 %
30.11.2022 21:44 5,7 C 99 % 1024,2 hPa 0,0 l/m 0 min 0 min 0,000 mm 0,0 UV-I 0 W/m 5,6 C 5,7 C 3,2 km/h (1 Bft) 98 %
30.11.2022 21:42 5,7 C 99 % 1024,3 hPa 0,0 l/m 0 min 0 min 0,000 mm 0,0 UV-I 0 W/m 5,6 C 5,7 C 0,0 km/h (0 Bft) 98 %
30.11.2022 21:40 5,7 C 99 % 1024,2 hPa 0,0 l/m 0 min 0 min 0,000 mm 0,0 UV-I 0 W/m 5,6 C 5,7 C 6,4 km/h (2 Bft) 98 %
30.11.2022 21:38 5,8 C 99 % 1024,2 hPa 0,0 l/m 0 min 0 min 0,000 mm 0,0 UV-I 0 W/m 5,7 C 5,8 C 0,0 km/h (0 Bft) 98 %
30.11.2022 21:36 5,7 C 99 % 1024,2 hPa 0,0 l/m 0 min 0 min 0,000 mm 0,0 UV-I 0 W/m 5,6 C 5,7 C 0,0 km/h (0 Bft) 96 %
30.11.2022 21:34 5,7 C 99 % 1024,1 hPa 0,0 l/m 0 min 0 min 0,000 mm 0,0 UV-I 0 W/m 5,6 C 5,7 C 1,6 km/h (1 Bft) 98 %
30.11.2022 21:32 5,7 C 99 % 1024,1 hPa 0,0 l/m 0 min 0 min 0,000 mm 0,0 UV-I 0 W/m 5,6 C 5,7 C 0,0 km/h (0 Bft) 98 %
30.11.2022 21:30 5,8 C 99 % 1024,2 hPa 0,0 l/m 0 min 0 min 0,000 mm 0,0 UV-I 0 W/m 5,7 C 5,8 C 0,0 km/h (0 Bft) 98 %
30.11.2022 21:28 5,8 C 99 % 1024,1 hPa 0,0 l/m 0 min 0 min 0,000 mm 0,0 UV-I 0 W/m 5,7 C 5,8 C 0,0 km/h (0 Bft) 98 %
30.11.2022 21:26 5,8 C 99 % 1024,1 hPa 0,0 l/m 0 min 0 min 0,000 mm 0,0 UV-I 0 W/m 5,7 C 5,8 C 6,4 km/h (2 Bft) 98 %
30.11.2022 21:24 5,8 C 99 % 1024,1 hPa 0,0 l/m 0 min 0 min 0,000 mm 0,0 UV-I 0 W/m 5,7 C 5,8 C 1,6 km/h (1 Bft) 98 %
30.11.2022 21:22 5,8 C 99 % 1024,1 hPa 0,0 l/m 0 min 0 min 0,000 mm 0,0 UV-I 0 W/m 5,7 C 5,8 C 6,4 km/h (2 Bft) 98 %
30.11.2022 21:20 5,7 C 99 % 1024,1 hPa 0,0 l/m 0 min 0 min 0,000 mm 0,0 UV-I 0 W/m 5,6 C 5,7 C 8,0 km/h (2 Bft) 96 %
30.11.2022 21:18 5,8 C 99 % 1024,1 hPa 0,0 l/m 0 min 0 min 0,000 mm 0,0 UV-I 0 W/m 5,7 C 5,8 C 4,8 km/h (1 Bft) 94 %
30.11.2022 21:16 5,7 C 99 % 1024,1 hPa 0,0 l/m 0 min 0 min 0,000 mm 0,0 UV-I 0 W/m 5,6 C 5,7 C 0,0 km/h (0 Bft) 96 %
30.11.2022 21:14 5,7 C 99 % 1024,1 hPa 0,0 l/m 0 min 0 min 0,000 mm 0,0 UV-I 0 W/m 5,6 C 5,7 C 4,8 km/h (1 Bft) 98 %
30.11.2022 21:12 5,7 C 99 % 1024,0 hPa 0,0 l/m 0 min 0 min 0,000 mm 0,0 UV-I 0 W/m 5,6 C 5,7 C 0,0 km/h (0 Bft) 98 %
30.11.2022 21:10 5,7 C 99 % 1024,0 hPa 0,0 l/m 0 min 0 min 0,000 mm 0,0 UV-I 0 W/m 5,6 C 5,7 C 0,0 km/h (0 Bft) 94 %
30.11.2022 21:08 5,7 C 99 % 1024,1 hPa 0,0 l/m 0 min 0 min 0,000 mm 0,0 UV-I 0 W/m 5,6 C 5,7 C 0,0 km/h (0 Bft) 91 %
30.11.2022 21:06 5,7 C 99 % 1024,1 hPa 0,0 l/m 0 min 0 min 0,000 mm 0,0 UV-I 0 W/m 5,6 C 5,7 C 0,0 km/h (0 Bft) 98 %
30.11.2022 21:04 5,7 C 99 % 1024,1 hPa 0,0 l/m 0 min 0 min 0,000 mm 0,0 UV-I 0 W/m 5,6 C 5,7 C 0,0 km/h (0 Bft) 100 %
30.11.2022 21:00 5,7 C 99 % 1024,0 hPa 0,0 l/m 0 min 0 min 0,000 mm 0,0 UV-I 0 W/m 5,6 C 5,7 C 4,8 km/h (1 Bft) 75 %
30.11.2022 20:55 5,7 C 99 % 1024,0 hPa 0,0 l/m 0 min 0 min 0,000 mm 0,0 UV-I 0 W/m 5,6 C 5,7 C 1,6 km/h (1 Bft) 83 %
30.11.2022 20:50 5,7 C 99 % 1024,0 hPa 0,0 l/m 0 min 0 min 0,000 mm 0,0 UV-I 0 W/m 5,6 C 5,7 C 0,0 km/h (0 Bft) 84 %
30.11.2022 20:45 5,7 C 99 % 1024,1 hPa 0,0 l/m 0 min 0 min 0,000 mm 0,0 UV-I 0 W/m 5,6 C 5,7 C 1,6 km/h (1 Bft) 89 %
30.11.2022 20:40 5,7 C 99 % 1024,1 hPa 0,0 l/m 0 min 0 min 0,000 mm 0,0 UV-I 0 W/m 5,6 C 5,7 C 6,4 km/h (2 Bft) 92 %
30.11.2022 20:35 5,7 C 99 % 1024,0 hPa 0,0 l/m 0 min 0 min 0,000 mm 0,0 UV-I 0 W/m 5,6 C 5,7 C 0,0 km/h (0 Bft) 91 %
30.11.2022 20:30 5,7 C 99 % 1024,0 hPa 0,0 l/m 0 min 0 min 0,000 mm 0,0 UV-I 0 W/m 5,6 C 5,7 C 9,7 km/h (2 Bft) 92 %
30.11.2022 20:25 5,7 C 99 % 1023,9 hPa 0,0 l/m 0 min 0 min 0,000 mm 0,0 UV-I 0 W/m 5,6 C 5,7 C 4,8 km/h (1 Bft) 94 %
30.11.2022 20:20 5,7 C 99 % 1023,9 hPa 0,0 l/m 0 min 0 min 0,000 mm 0,0 UV-I 0 W/m 5,6 C 5,7 C 8,0 km/h (2 Bft) 90 %
30.11.2022 20:15 5,7 C 99 % 1023,8 hPa 0,0 l/m 0 min 0 min 0,000 mm 0,0 UV-I 0 W/m 5,6 C 5,7 C 6,4 km/h (2 Bft) 93 %
30.11.2022 20:10 5,7 C 99 % 1023,9 hPa 0,0 l/m 0 min 0 min 0,000 mm 0,0 UV-I 0 W/m 5,6 C 5,7 C 1,6 km/h (1 Bft) 92 %
30.11.2022 20:05 5,7 C 99 % 1023,9 hPa 0,0 l/m 0 min 0 min 0,000 mm 0,0 UV-I 0 W/m 5,6 C 5,7 C 8,0 km/h (2 Bft) 91 %
30.11.2022 20:00 5,7 C 99 % 1023,9 hPa 0,0 l/m 0 min 0 min 0,000 mm 0,0 UV-I 0 W/m 5,6 C 5,7 C 0,0 km/h (0 Bft) 95 %
30.11.2022 19:55 5,7 C 98 % 1023,9 hPa 0,0 l/m 0 min 0 min 0,000 mm 0,0 UV-I 0 W/m 5,4 C 5,7 C 4,8 km/h (1 Bft) 89 %
30.11.2022 19:50 5,7 C 98 % 1023,8 hPa 0,0 l/m 0 min 0 min 0,000 mm 0,0 UV-I 0 W/m 5,4 C 5,7 C 4,8 km/h (1 Bft) 93 %
30.11.2022 19:45 5,7 C 98 % 1023,8 hPa 0,0 l/m 0 min 0 min 0,000 mm 0,0 UV-I 0 W/m 5,4 C 5,7 C 8,0 km/h (2 Bft) 94 %
30.11.2022 19:40 5,7 C 98 % 1023,7 hPa 0,0 l/m 0 min 0 min 0,000 mm 0,0 UV-I 0 W/m 5,4 C 5,7 C 9,7 km/h (2 Bft) 87 %
30.11.2022 19:35 5,7 C 98 % 1023,8 hPa 0,0 l/m 0 min 0 min 0,000 mm 0,0 UV-I 0 W/m 5,4 C 5,7 C 8,0 km/h (2 Bft) 91 %
30.11.2022 19:30 5,7 C 98 % 1023,7 hPa 0,0 l/m 0 min 0 min 0,000 mm 0,0 UV-I 0 W/m 5,4 C 5,7 C 9,7 km/h (2 Bft) 96 %
30.11.2022 19:25 5,7 C 98 % 1023,7 hPa 0,0 l/m 0 min 0 min 0,000 mm 0,0 UV-I 0 W/m 5,4 C 5,7 C 0,0 km/h (0 Bft) 93 %
30.11.2022 19:20 5,8 C 98 % 1023,7 hPa 0,0 l/m 0 min 0 min 0,000 mm 0,0 UV-I 0 W/m 5,5 C 5,8 C 0,0 km/h (0 Bft) 96 %
30.11.2022 19:15 5,8 C 98 % 1023,7 hPa 0,0 l/m 0 min 0 min 0,000 mm 0,0 UV-I 0 W/m 5,5 C 5,8 C 0,0 km/h (0 Bft) 94 %
30.11.2022 19:10 5,8 C 98 % 1023,7 hPa 0,0 l/m 0 min 0 min 0,000 mm 0,0 UV-I 0 W/m 5,5 C 5,8 C 0,0 km/h (0 Bft) 96 %
30.11.2022 19:05 5,8 C 98 % 1023,7 hPa 0,0 l/m 0 min 0 min 0,000 mm 0,0 UV-I 0 W/m 5,5 C 5,8 C 0,0 km/h (0 Bft) 96 %
30.11.2022 19:00 5,8 C 98 % 1023,6 hPa 0,0 l/m 0 min 0 min 0,000 mm 0,0 UV-I 0 W/m 5,5 C 5,8 C 0,0 km/h (0 Bft) 94 %
_ Min-Zeit 17:10 19:00 19:00 - - - - - - 17:40 17:00 19:00 21:00
Minimum _ 4,3 C 98 % 1023,6 hPa - - - - - - 4,2 C 1,6 C 0,0 km/h (0 Bft) 75 %
_ Max-Zeit 19:00 07:06 10:30 00:40 19:00 04:36 13:00 14:45 14:45 21:18 19:00 14:00 21:04
Maximum _ 5,8 C 100 % 1025,7 hPa 0,2 l/m 0 min 2 min 0,025 mm 0,6 UV-I 52 W/m 5,7 C 5,8 C 20,9 km/h
N-NW (4 Bft)
100 %
Durchschnitt _ 5,2 C 99 % 1024,6 hPa #0,4 l/m #0 min. #28 min. #0,075 mm 0,5 UV-I 19 W/m 5,1 C 5,2 C 2,5 km/h (1 Bft) 95 %